GFSMA_con_lsi_051.txt.gz
Lid_Strength_Index
-0 0 1 2 2 2 2 3 3 3 3 4 4 4 4 4 3 3 2 -0 -1 -0 -1 1 -0 1 1 2 2 2 2 2 2 2 2 2 2 2 2 2 2 2 2
0 0 2 2 2 2 2 3 4 3 4 4 4 4 4 4 3 2 0 -0 -1 -1 -0 1 1 1 1 2 2 2 2 2 2 2 2 2 2 2 3 3 3 3 2
0 1 2 2 2 3 3 4 4 4 4 4 5 4 4 4 4 2 1 1 1 0 0 1 1 3 3 3 3 3 3 3 3 2 2 2 2 3 3 3 3 3 3
0 0 2 3 3 4 4 4 4 4 4 4 4 4 4 4 4 4 1 1 2 1 2 3 4 4 4 4 4 4 4 3 3 3 3 3 3 3 3 3 3 3 3
1 1 1 3 4 4 4 4 4 3 4 4 4 4 4 5 5 5 5 4 3 3 3 4 4 4 5 5 5 4 4 3 3 3 3 3 3 3 4 4 4 4 3
2 2 2 3 3 3 4 4 3 3 3 4 5 5 4 5 5 4 5 5 4 4 4 4 3 4 5 5 5 5 4 3 3 3 3 3 3 4 4 4 4 4 4
2 2 2 3 3 3 4 3 4 3 4 4 4 5 5 5 5 5 5 5 5 5 5 4 4 5 5 7 7 6 4 4 4 4 4 4 4 4 4 4 4 4 4
2 2 2 3 3 3 4 3 3 4 4 4 5 6 7 7 6 5 5 5 5 5 6 6 6 6 6 6 6 6 6 5 5 5 5 5 5 5 4 4 4 4 4
2 2 2 3 3 3 3 4 4 4 5 5 5 6 8 9 7 5 5 5 5 5 5 5 6 6 6 6 6 6 7 6 5 5 5 5 5 4 4 4 4 4 3
3 4 3 3 3 3 4 4 4 4 5 6 5 6 5 6 8 9 6 5 6 6 5 5 5 5 6 6 7 7 6 6 6 6 5 5 5 4 4 4 4 3 3
4 4 4 3 4 4 3 4 5 5 5 6 6 6 5 5 5 7 9 8 6 5 5 5 5 5 5 5 4 5 6 6 6 5 4 4 4 3 3 3 3 3 3
3 4 4 4 4 4 5 6 7 7 7 7 6 6 7 7 8 8 9 8 8 6 5 5 5 4 4 5 7 7 7 6 6 6 5 5 4 4 4 4 3 3 3
5 5 5 5 6 7 7 7 6 7 8 6 6 6 6 6 6 7 7 8 8 6 6 5 4 4 5 5 5 6 6 7 7 6 6 6 5 5 4 4 4 3 3
4 5 5 7 7 7 6 7 7 8 7 6 6 6 6 6 6 6 7 7 8 7 7 6 4 4 5 5 5 5 5 6 7 7 6 5 5 5 4 4 3 3 2
6 6 6 7 7 7 7 7 8 7 7 6 5 6 6 6 6 6 5 5 6 9 9 6 6 4 3 3 4 4 4 5 5 5 5 5 4 4 4 3 3 3 2
7 7 6 6 8 8 7 8 8 7 7 6 6 6 6 6 6 6 5 4 5 6 8 5 5 3 3 4 4 4 4 5 5 5 5 5 4 4 3 3 3 3 3
7 7 6 8 8 8 8 8 8 7 7 6 7 7 6 6 6 6 5 4 5 5 6 5 4 3 4 4 4 4 4 5 4 5 5 5 4 4 4 4 4 4 4
6 7 8 8 7 8 8 8 7 6 7 7 6 7 7 6 6 5 5 5 5 4 5 6 4 5 5 4 4 5 5 5 4 5 5 4 4 4 5 4 4 5 4
7 7 7 7 7 7 7 6 6 6 6 6 6 6 5 5 5 5 5 5 5 5 4 6 6 5 5 4 5 5 5 4 4 5 5 5 5 5 5 5 5 5 5
6 5 6 7 6 7 6 6 6 6 6 6 5 4 4 4 4 4 5 5 5 5 5 6 6 5 5 5 5 7 6 5 5 4 4 5 5 5 5 5 5 5 4
6 7 6 7 7 7 7 7 6 6 6 6 4 5 4 4 5 4 5 4 4 5 5 6 6 5 6 6 7 6 7 6 5 4 4 5 5 5 4 5 4 4 4
6 6 7 7 7 7 8 8 8 7 6 5 5 4 4 5 5 5 5 5 5 5 6 6 6 6 6 6 6 7 7 7 8 4 5 6 5 5 5 4 4 5 4
6 7 7 7 7 6 9 9 9 6 5 4 4 4 4 5 5 4 5 5 4 5 6 4 5 5 6 5 6 7 6 6 7 5 6 7 5 6 4 4 4 4 4
7 7 7 6 7 7 9 8 8 5 5 5 4 4 4 3 3 4 4 4 4 3 4 5 4 4 4 5 6 5 6 6 5 5 5 8 6 6 4 4 4 4 4
7 7 8 8 8 7 8 8 7 5 5 5 5 4 4 3 4 5 4 5 5 4 5 5 5 5 6 6 5 5 6 7 7 7 5 6 6 6 5 4 3 4 5
9 9 9 8 9 7 7 7 7 5 6 6 5 4 5 4 5 5 4 5 5 4 5 5 5 5 5 5 6 5 5 7 7 8 5 7 7 7 8 5 4 4 3

GFSMA_con_lsi_054.txt.gz
Lid_Strength_Index
-2 -2 -1 -1 -0 -0 0 1 1 2 1 1 2 2 3 2 2 2 1 -1 -0 -1 -0 0 0 1 1 1 2 2 2 2 2 2 2 2 2 2 2 2 2 2 2
-2 -1 -1 -0 0 -0 -0 0 1 1 1 1 2 2 3 3 2 1 0 0 -0 -1 0 1 1 1 1 2 2 2 3 2 2 2 2 2 2 3 3 3 3 3 3
-2 -2 -1 0 0 0 0 1 1 1 1 2 2 2 2 3 2 1 1 0 1 1 0 1 2 3 3 3 3 3 3 3 3 3 3 3 4 4 3 3 3 3 3
-2 -2 -1 -1 -1 0 1 3 1 1 1 1 2 2 2 2 2 2 1 1 0 1 3 3 4 4 4 4 4 3 3 3 3 3 3 3 3 3 3 3 3 4 4
-2 -2 -1 -1 -0 3 3 2 1 1 1 2 2 1 1 2 3 4 3 2 2 2 3 3 4 4 4 4 4 4 4 3 3 3 3 3 3 3 3 3 3 3 3
-2 -2 -2 -1 1 1 2 2 2 2 1 1 3 3 1 2 3 3 4 4 4 3 3 3 3 3 5 5 5 5 4 4 3 3 3 4 4 4 4 4 4 3 3
-2 -2 -1 -1 1 2 2 2 2 1 2 2 2 2 2 3 3 4 3 3 3 3 3 3 3 4 4 5 6 6 4 4 3 4 4 4 4 4 4 4 4 4 4
-1 -1 -1 -0 1 1 3 2 1 2 2 2 2 3 4 4 4 4 3 3 3 3 4 4 4 4 4 4 4 6 5 5 4 3 4 4 4 4 4 4 4 4 4
-0 -0 -1 -0 -0 1 3 2 1 2 2 2 3 4 5 6 5 3 4 4 3 4 4 4 3 3 3 3 3 3 6 5 4 4 3 3 3 3 3 3 4 4 4
0 -0 -0 0 1 2 2 1 1 2 2 4 3 4 5 5 6 6 4 4 4 4 4 4 3 3 3 3 4 6 5 6 5 5 4 3 3 3 3 3 3 3 3
-0 1 1 1 2 1 1 1 2 2 4 6 6 6 5 5 5 7 8 6 5 4 4 4 3 3 3 3 3 4 7 7 6 6 5 4 4 3 2 2 2 2 2
0 1 3 3 2 1 2 2 3 6 6 6 7 7 5 6 6 7 8 7 7 5 4 4 4 4 3 3 5 7 7 7 7 6 5 4 3 2 2 2 2 2 2
2 3 3 2 2 2 3 6 5 4 6 7 7 5 6 6 5 6 7 7 7 6 5 4 3 3 3 3 3 7 5 6 6 5 4 3 3 2 2 2 2 2 2
4 2 3 2 4 5 6 4 5 7 7 8 6 6 6 5 5 5 7 7 8 7 5 4 3 3 3 3 3 6 3 3 3 4 4 4 3 3 3 2 2 2 2
4 5 5 6 6 5 5 7 7 8 7 6 6 5 5 5 5 5 5 5 6 7 7 5 5 3 3 3 2 2 2 2 3 4 4 4 4 3 3 2 2 2 2
6 6 7 7 5 6 7 6 7 7 7 6 5 4 4 5 5 5 5 5 4 5 7 4 4 3 3 3 2 2 2 3 3 3 4 4 4 3 3 3 3 3 3
6 6 6 6 8 7 7 7 8 7 7 5 4 5 5 5 5 5 5 4 4 4 6 5 3 3 3 3 2 2 2 2 2 3 3 4 4 4 4 3 3 3 3
6 5 6 7 7 6 7 7 7 7 5 5 5 5 5 6 5 5 5 4 4 3 5 6 4 3 2 2 2 2 3 3 3 3 3 4 4 4 4 4 4 3 3
6 6 7 7 6 7 7 7 6 5 5 5 5 5 5 5 5 5 4 4 3 4 4 4 4 2 2 2 3 2 3 3 3 3 3 3 4 4 4 4 4 4 4
6 6 6 6 6 6 6 6 5 5 5 5 5 5 5 5 4 3 3 3 4 4 3 4 4 3 3 3 3 4 4 3 4 3 2 3 3 3 3 4 4 4 4
6 4 6 6 6 6 6 6 6 6 5 5 5 4 4 3 4 4 3 3 3 4 3 4 4 4 4 4 4 3 4 4 3 2 3 2 2 2 3 3 3 4 4
6 6 7 7 6 6 8 8 7 5 6 5 5 4 3 4 4 5 5 5 4 2 3 3 4 5 4 4 3 4 4 5 6 2 3 3 3 3 3 2 3 4 4
6 6 6 6 6 6 8 8 9 7 6 6 5 4 4 3 4 3 5 6 5 5 5 2 3 4 4 3 3 4 5 5 5 3 4 5 3 4 2 3 3 4 4
6 6 6 5 5 5 9 9 10 7 6 6 4 4 4 3 3 3 3 3 2 2 2 3 3 2 2 2 2 3 4 4 4 3 3 5 3 4 3 3 3 4 4
5 5 6 7 6 6 9 9 9 7 7 6 5 4 4 4 4 4 3 3 2 1 2 3 3 3 5 5 5 4 5 5 5 5 3 4 4 4 4 3 3 3 3
7 7 8 7 8 7 8 9 8 7 7 6 5 5 6 5 5 5 3 2 3 2 2 2 3 3 4 3 5 4 4 6 5 6 3 5 5 5 6 3 4 3 3

GFSMA_con_lsi_057.txt.gz
Lid_Strength_Index
-1 -2 -2 -2 -1 -1 -0 0 -0 1 0 0 1 2 2 2 1 1 0 -0 0 -1 -1 -1 0 1 2 2 2 2 2 2 2 2 2 2 2 2 3 3 3 3 2
-2 -1 -1 -1 -1 -1 -0 -1 -0 0 0 0 1 2 2 2 2 1 1 1 -1 -2 -0 1 0 1 1 2 2 3 3 3 2 2 3 3 3 3 3 3 3 3 3
-2 -2 -1 -1 -1 -1 -1 -1 0 0 1 1 1 2 2 2 2 2 2 1 1 1 0 1 2 2 3 3 2 3 3 3 3 2 3 3 3 3 3 3 3 4 3
-2 -2 -1 -1 -1 -1 0 -0 0 -0 -0 0 1 2 2 2 3 2 1 1 1 1 1 2 3 4 5 4 3 3 3 3 3 3 2 2 2 3 3 3 3 3 4
-2 -1 -1 -1 -2 -1 -0 1 0 -1 0 1 2 2 1 2 2 3 3 2 2 3 3 2 3 4 5 5 5 4 4 3 3 2 2 2 3 3 3 3 3 3 3
-1 -1 -1 -1 -1 -1 1 1 0 0 0 1 3 3 1 1 2 3 3 4 3 3 3 3 3 3 3 4 5 5 4 3 3 2 3 3 3 3 3 3 3 4 4
-1 -1 -1 -1 -1 -0 0 0 1 1 2 1 2 2 1 1 2 3 3 3 3 3 3 3 3 3 4 4 4 5 5 4 3 3 3 3 3 3 3 3 3 3 3
-1 -1 -1 -1 -1 -0 -0 1 1 2 1 1 3 2 4 3 3 3 3 3 3 3 4 4 4 4 3 3 4 5 5 5 4 3 3 3 3 3 3 3 3 3 3
-0 -0 -0 -1 -1 -1 1 1 2 2 3 2 2 3 5 5 5 3 3 3 3 3 3 3 3 3 3 3 3 3 6 6 5 4 4 3 3 3 3 3 3 2 2
-0 0 1 0 -1 -1 0 2 2 2 1 3 3 2 3 5 6 6 4 4 3 4 3 3 3 3 3 3 3 5 5 6 6 6 5 5 4 4 4 3 3 3 2
-1 0 -0 -0 -1 0 1 2 2 1 2 3 5 6 6 5 4 6 7 6 5 4 3 4 3 3 4 4 4 5 6 7 8 7 6 5 5 4 4 3 2 1 0
-0 -1 -1 1 1 2 2 2 0 1 4 5 5 6 7 7 6 5 7 7 6 5 4 4 4 4 4 4 4 6 7 7 7 6 6 5 5 4 3 1 0 -0 -0
1 0 -0 2 3 3 2 1 4 5 4 5 7 8 6 6 5 6 6 7 7 6 5 4 4 4 4 4 4 5 5 5 5 5 5 5 4 3 2 1 1 0 -0
1 0 3 3 3 5 6 6 5 4 6 7 8 6 7 6 5 5 6 7 8 7 6 6 4 4 4 4 5 5 4 4 4 5 5 4 3 3 3 2 2 1 1
0 1 3 4 6 6 6 5 6 8 8 7 7 6 6 5 3 5 5 6 7 8 8 6 6 3 3 3 3 3 3 3 3 3 3 3 3 3 3 2 2 2 1
1 3 4 5 6 6 5 6 7 7 9 8 7 7 5 4 4 5 5 5 6 7 9 6 5 3 3 3 2 3 3 2 2 2 2 2 3 3 3 3 3 2 2
3 4 6 6 6 6 7 7 8 8 9 7 7 6 4 4 5 5 5 5 6 6 8 6 4 3 2 2 3 3 2 2 1 1 2 2 3 3 3 3 3 3 3
5 6 6 6 6 7 7 7 8 8 8 7 6 4 5 5 5 4 5 5 5 4 5 6 4 3 3 2 2 2 2 2 2 2 1 2 3 3 3 3 3 3 3
6 6 7 7 7 6 6 6 7 7 6 5 4 5 5 5 5 5 5 4 4 4 3 4 4 3 3 2 2 1 2 1 2 1 2 2 2 3 3 3 3 3 3
6 7 7 7 7 7 7 7 7 6 5 5 5 5 4 5 5 4 4 3 3 3 3 4 4 4 3 2 1 2 3 2 2 3 2 2 2 2 1 1 2 2 3
7 6 6 6 6 6 6 6 6 6 6 5 5 4 4 4 6 5 4 3 3 3 3 3 3 3 3 3 3 2 3 2 2 2 2 2 2 2 2 1 1 2 2
5 5 6 7 7 7 8 8 8 6 5 5 5 5 4 5 4 6 6 6 4 3 4 3 3 3 2 2 2 2 3 4 5 2 3 3 2 3 2 2 2 3 3
5 5 7 6 6 6 8 8 9 6 6 6 6 5 5 5 5 3 4 6 6 6 6 3 3 2 3 1 1 3 3 4 4 3 3 4 2 3 2 2 2 2 3
5 5 5 5 5 5 8 9 10 7 7 6 6 6 5 5 4 4 4 4 3 2 2 2 2 2 1 0 1 2 3 3 3 3 2 5 2 3 2 2 2 2 3
5 6 6 6 7 6 9 10 9 7 7 7 6 6 6 5 6 6 5 4 4 3 2 2 2 2 4 4 4 2 3 4 4 4 2 4 3 4 3 3 2 3 3
7 7 8 7 9 7 11 10 10 9 10 9 9 8 9 8 8 7 5 5 5 3 2 2 2 2 3 3 4 3 3 4 5 5 3 4 4 4 6 3 3 2 2

GFSMA_con_lsi_060.txt.gz
Lid_Strength_Index
0 1 2 2 1 0 1 1 2 2 2 2 3 3 3 4 3 3 2 -1 -1 -2 -1 -1 -0 1 1 2 2 2 3 2 2 2 3 2 2 3 3 3 3 3 3
-0 1 0 0 -0 -0 0 1 2 2 2 2 3 4 4 3 3 3 3 1 -1 -2 -1 -1 -0 0 1 2 2 3 3 3 3 3 3 3 3 3 3 3 3 3 3
-1 -0 0 0 -0 0 1 1 1 1 2 2 3 3 3 4 4 4 3 2 1 0 -0 -0 0 1 2 3 3 3 3 3 3 3 2 2 2 2 2 2 2 3 3
-1 -0 0 0 -0 -0 0 1 2 2 2 2 3 4 4 4 4 4 3 3 2 2 0 0 1 2 4 4 4 4 3 3 3 3 2 2 2 2 3 3 3 3 3
-1 -0 0 0 -0 0 1 1 2 1 2 2 3 4 4 4 5 4 4 3 4 4 3 1 2 2 3 4 5 5 4 4 3 3 2 2 3 3 3 3 3 3 3
-1 -0 0 -0 -0 0 1 2 2 2 1 2 3 4 4 4 4 5 5 4 5 5 6 4 5 5 2 3 4 4 4 4 4 3 3 3 3 3 3 3 3 3 3
-0 -0 -0 -0 0 1 2 2 2 3 2 3 4 5 4 4 4 5 5 5 5 5 6 5 6 6 5 3 3 4 4 4 3 3 3 3 3 4 4 3 3 3 3
-0 -0 0 0 0 1 2 2 2 3 3 3 5 6 7 6 5 4 5 5 6 5 5 5 6 6 6 6 5 4 4 4 5 5 4 4 4 4 4 4 4 3 3
0 0 0 0 1 1 2 2 3 3 4 3 4 6 7 8 7 5 5 5 5 6 6 6 5 5 6 6 4 4 4 5 5 6 5 5 5 4 4 4 4 4 4
0 1 1 1 1 1 1 2 2 3 3 5 4 4 6 7 8 9 6 5 5 5 6 6 6 5 5 6 4 4 5 6 6 7 7 6 5 4 4 4 4 4 4
1 0 0 0 0 0 1 2 3 4 3 4 5 8 8 7 7 8 9 7 6 5 5 5 5 6 5 6 7 6 6 7 7 8 7 6 5 5 5 5 4 4 4
0 -0 -0 0 1 1 3 3 4 3 4 6 7 7 8 8 8 9 9 9 8 7 6 5 5 6 6 7 5 6 6 7 7 6 6 6 5 5 4 4 4 3 2
1 1 0 1 2 2 3 3 4 6 6 7 7 8 7 7 8 8 9 9 9 8 7 6 6 6 5 6 6 6 6 6 6 5 5 5 4 4 4 4 3 2 1
1 1 0 2 3 3 5 5 6 5 6 8 9 8 8 8 8 8 8 9 9 9 8 8 6 7 6 7 6 5 7 6 5 4 4 4 4 3 4 3 2 2 1
2 2 2 4 5 6 5 5 5 8 9 8 8 8 8 7 7 6 7 6 8 12 11 8 9 7 6 7 7 7 7 4 4 4 4 4 3 2 3 3 2 2 1
3 3 3 5 6 6 6 7 8 8 8 7 7 7 7 6 5 5 6 6 7 8 11 9 8 8 7 6 4 6 6 3 3 3 3 2 1 2 2 3 2 2 2
3 4 4 6 6 6 7 7 8 8 8 7 7 7 7 5 5 6 6 6 7 8 10 9 8 7 7 7 6 5 4 6 5 2 2 2 1 2 2 2 3 2 2
4 5 5 7 7 7 7 8 7 8 7 7 7 7 6 4 5 5 6 7 7 7 8 9 8 8 7 6 6 6 4 4 5 3 1 1 1 2 2 2 2 2 2
6 6 6 8 7 7 7 8 8 7 7 7 7 6 5 5 6 6 6 6 7 6 7 8 8 8 7 7 7 6 5 5 4 1 1 1 1 1 1 1 1 1 1
7 8 8 7 7 7 7 7 7 7 7 6 6 6 6 6 6 6 6 7 6 7 7 7 7 7 8 6 6 7 6 5 5 2 2 2 1 1 0 0 1 1 1
8 8 8 7 7 7 7 7 7 7 7 7 6 5 6 5 5 6 6 7 8 8 7 7 7 7 7 7 7 5 5 5 5 4 5 5 5 4 4 2 1 1 1
7 6 7 7 7 7 8 8 8 7 7 7 7 8 7 6 6 7 7 7 7 7 8 7 7 7 7 6 5 5 5 5 7 5 6 7 5 6 5 4 1 1 2
6 7 7 7 7 7 9 9 9 8 8 9 9 9 8 7 8 7 7 8 8 8 8 6 7 6 6 5 4 5 5 5 5 5 6 8 6 7 4 2 1 1 1
6 6 6 6 7 6 9 10 11 10 10 9 9 9 10 10 9 9 10 11 10 8 7 6 7 6 5 4 3 3 4 5 6 5 5 9 6 6 5 5 2 1 1
6 6 6 7 9 11 11 12 11 11 11 12 10 10 11 11 10 9 11 11 10 9 7 5 4 4 3 3 3 3 5 7 9 7 5 7 6 7 6 6 5 1 1
7 8 8 8 10 12 12 12 12 13 14 14 13 12 11 11 10 10 11 11 12 11 10 8 7 5 4 4 4 3 4 5 6 8 5 8 7 7 10 7 6 6 5

GFSMA_con_lsi_063.txt.gz
Lid_Strength_Index
3 3 3 3 3 4 4 2 3 4 5 4 5 5 5 5 5 4 2 -1 -2 -2 -1 -1 -0 0 1 1 2 2 2 3 2 2 3 2 3 3 3 3 3 3 3
3 3 3 3 3 2 2 3 3 4 4 4 5 5 5 5 4 4 2 1 -1 -2 -2 -1 -1 -0 0 1 2 3 3 3 3 3 3 2 2 2 2 2 2 2 2
2 2 1 1 2 1 2 3 3 3 4 4 5 5 5 5 5 3 3 2 0 -1 -1 -2 -0 -0 1 2 2 3 3 4 4 3 3 3 3 2 2 2 2 2 2
1 1 1 1 1 1 2 3 3 3 4 4 5 5 5 5 6 6 4 3 3 2 -0 -1 -0 1 2 2 3 3 4 4 4 3 3 3 2 3 3 3 3 3 3
-0 0 1 1 1 1 2 2 3 3 3 4 5 5 6 6 6 5 5 4 3 3 3 0 0 1 2 2 3 4 4 4 4 4 3 3 3 3 3 3 3 3 3
-0 0 0 1 1 2 2 3 3 3 3 3 4 4 6 6 7 7 7 6 6 4 4 4 4 5 2 2 3 4 4 4 4 4 3 3 3 3 3 3 3 3 3
-0 0 0 0 1 2 3 3 3 3 4 4 5 6 6 6 7 7 7 7 7 7 7 6 6 7 5 2 3 3 2 3 3 4 4 4 4 3 4 4 3 3 3
-0 -0 -0 0 1 2 3 4 4 4 4 4 6 6 7 7 6 6 7 7 7 7 7 6 7 7 7 6 6 2 2 3 3 4 5 5 5 4 4 4 4 4 4
-0 0 0 0 1 1 2 3 3 4 5 4 5 6 7 8 8 7 7 6 6 7 7 7 7 8 8 7 4 3 2 3 3 4 5 5 5 5 5 4 4 4 4
0 1 1 1 1 1 2 3 2 3 4 5 5 5 7 7 9 10 8 6 7 6 7 8 8 8 7 6 5 4 3 4 4 4 5 5 5 5 5 4 4 4 4
1 1 2 2 2 2 3 2 3 3 3 4 5 7 7 7 7 9 9 8 6 6 8 7 7 7 6 6 7 5 4 5 5 5 4 5 5 5 5 5 5 4 4
1 1 2 2 2 2 2 3 3 3 4 6 6 7 7 8 8 9 9 9 9 8 7 7 6 7 7 7 5 4 4 5 5 4 4 4 5 5 5 4 4 4 4
2 2 2 2 2 3 4 3 3 4 5 6 7 7 8 8 7 7 8 9 10 9 7 7 6 6 6 7 6 4 4 5 5 5 4 4 4 4 4 4 4 3 3
1 2 2 2 2 4 4 4 5 5 6 7 8 8 8 7 7 7 6 7 10 10 9 9 6 6 7 7 6 3 5 5 5 5 4 4 4 3 3 3 3 3 2
1 2 2 3 4 4 5 5 6 6 7 8 8 7 7 6 6 5 5 6 8 11 12 10 9 8 8 7 6 6 8 5 5 5 4 4 3 3 3 2 2 2 2
2 3 4 5 6 5 6 6 7 8 8 7 7 8 7 6 6 6 5 6 8 9 11 10 9 8 8 6 6 7 7 5 5 5 5 4 3 2 2 1 2 2 2
3 4 5 7 7 6 6 7 8 7 7 7 7 7 7 6 7 6 7 7 7 8 9 10 9 9 9 9 7 7 7 6 6 4 4 4 3 2 1 1 1 2 2
4 5 6 7 6 7 8 7 8 8 7 8 7 7 7 6 6 6 6 7 7 7 8 9 10 10 9 8 8 8 7 6 6 4 2 2 1 2 1 1 1 1 1
6 6 6 7 7 8 8 8 8 7 7 7 7 7 6 6 7 7 7 7 7 7 8 9 9 9 9 8 7 7 7 7 5 3 2 1 1 1 1 0 1 0 0
7 7 7 8 8 8 7 7 8 7 7 7 6 6 6 8 8 8 7 9 8 10 9 9 10 10 10 8 8 8 9 8 7 4 2 3 2 1 0 -0 0 0 -0
7 7 8 8 8 8 7 8 7 7 7 7 7 6 7 7 7 7 7 8 9 9 10 10 10 9 10 11 11 9 9 7 7 5 5 5 5 5 5 1 1 -0 -0
8 7 8 8 8 8 9 8 7 7 7 7 9 10 10 9 9 9 10 10 10 12 12 13 11 10 9 10 10 9 7 7 7 5 5 6 5 6 5 5 2 1 1
8 8 9 8 8 8 9 8 9 9 9 11 12 12 11 10 11 11 11 11 11 10 11 12 12 11 10 9 7 7 8 5 6 5 5 5 6 7 5 3 1 1 1
8 8 9 8 8 7 9 10 11 12 13 13 13 13 13 13 13 12 13 13 13 12 11 10 11 10 9 6 6 6 5 5 4 4 5 8 7 7 6 5 2 1 1
7 8 7 10 12 12 11 12 13 14 14 14 13 14 14 14 12 12 14 15 15 14 11 10 9 8 7 6 5 6 5 5 7 7 6 7 7 7 6 6 5 2 1
7 9 10 12 12 13 12 12 14 16 16 16 16 15 14 14 13 13 14 15 15 14 13 12 11 10 8 7 5 5 5 6 6 7 5 6 7 8 9 7 6 6 7

GFSMA_con_lsi_066.txt.gz
Lid_Strength_Index
4 4 5 5 5 6 5 5 5 6 5 6 6 6 6 4 3 2 1 -2 -2 -2 -1 -1 -1 -0 1 1 2 2 2 2 3 3 3 3 3 3 2 2 2 2 2
4 4 5 5 5 5 3 4 4 5 6 6 7 6 5 5 4 3 2 0 -2 -2 -2 -1 -1 -0 0 1 2 3 3 3 3 3 3 3 3 3 3 3 3 3 3
3 4 5 5 4 3 3 4 4 4 5 5 5 5 5 5 4 4 3 2 1 -2 -2 -2 -1 -1 -0 1 2 3 3 3 4 4 3 3 3 3 3 3 3 3 3
2 3 3 3 2 2 3 3 4 4 5 5 6 5 6 5 5 5 4 3 2 1 -0 -2 -1 -0 1 1 2 3 3 4 4 4 4 3 3 3 3 3 3 3 3
2 2 2 1 2 2 3 3 4 4 4 5 5 6 6 6 7 5 5 4 4 3 3 -0 -0 0 1 2 2 3 5 5 5 4 4 3 3 3 3 3 3 3 3
1 1 1 1 2 2 3 3 4 4 3 4 4 6 7 7 7 8 6 5 5 4 4 4 3 4 2 2 3 3 4 4 4 4 4 4 4 4 4 4 3 3 3
-0 1 1 1 2 2 3 3 4 4 4 4 5 6 6 7 8 8 8 8 7 6 5 5 6 7 5 2 3 3 3 2 3 3 3 4 5 5 4 4 4 4 4
0 0 1 1 1 2 3 4 4 5 4 4 6 6 8 7 7 7 8 8 8 8 7 6 7 7 8 7 6 3 2 1 2 2 3 4 5 5 5 5 4 4 4
0 0 1 1 0 1 3 3 3 4 5 4 5 6 8 8 8 7 6 7 8 8 7 7 7 7 8 8 5 3 1 1 2 2 3 3 4 4 5 5 4 4 4
0 0 0 1 1 1 2 3 3 4 4 5 4 5 7 7 9 8 7 6 7 7 7 7 7 7 8 8 6 4 3 3 2 2 2 3 3 4 4 4 5 4 4
0 0 0 1 1 1 2 2 4 4 4 4 4 7 7 7 7 8 9 8 7 6 6 6 6 6 7 7 7 5 3 4 3 2 2 2 3 3 4 4 4 4 4
0 0 1 1 2 2 3 3 4 4 4 4 5 6 7 7 8 8 9 8 8 7 6 6 6 6 6 7 6 4 3 4 4 2 2 2 2 3 3 4 4 4 4
1 1 2 2 2 2 3 4 5 4 4 4 6 6 6 6 7 7 8 8 9 7 7 7 6 7 7 8 7 4 3 4 4 3 3 3 3 3 3 3 3 4 4
1 0 1 2 2 3 4 5 4 4 5 6 6 6 7 7 6 6 8 9 9 9 9 8 8 8 8 8 7 4 5 5 5 4 3 3 3 3 3 3 3 3 3
2 2 2 2 3 3 5 5 5 6 6 6 6 8 8 7 5 5 6 6 8 10 10 10 10 8 8 9 8 7 7 5 5 5 4 4 3 3 3 3 3 3 2
1 2 2 3 4 5 5 5 6 6 7 7 7 7 6 6 6 6 6 6 7 8 10 10 10 9 8 8 7 7 7 5 5 5 5 4 4 3 3 2 2 2 2
1 2 2 4 5 5 6 6 7 7 7 7 7 6 6 6 6 6 6 7 8 8 9 8 9 9 10 10 8 8 7 7 7 5 5 4 4 3 3 2 1 0 1
3 3 4 5 6 7 7 7 8 7 8 7 7 7 7 6 7 7 7 7 7 8 8 9 8 11 10 9 9 9 7 7 7 6 4 4 3 3 1 1 0 0 0
4 5 5 7 7 7 7 8 8 8 7 7 7 7 7 6 7 7 8 9 8 7 8 10 9 10 10 10 10 9 8 9 7 5 5 3 3 2 1 0 0 -0 -0
6 7 6 8 8 8 7 8 8 8 7 7 7 7 6 7 9 10 9 10 10 12 11 12 11 11 12 11 11 11 10 11 9 6 4 3 2 1 0 -1 -1 -1 -1
7 7 8 8 8 8 8 8 7 8 7 7 7 7 7 8 9 10 12 14 14 14 14 14 14 13 13 13 13 11 11 10 8 9 7 5 4 3 2 0 0 -1 -1
8 8 8 8 8 7 10 9 8 7 7 7 8 11 11 12 11 11 11 11 12 15 16 16 15 15 14 13 12 11 10 10 10 8 6 5 4 5 4 3 2 1 0
9 9 8 8 8 8 9 8 9 8 10 12 13 14 13 13 13 13 13 13 13 13 14 15 16 15 14 13 12 12 11 10 9 5 7 7 7 5 4 3 2 1 0
9 8 9 9 8 8 9 10 11 12 14 14 14 15 15 15 14 14 15 16 15 15 15 14 14 13 13 12 12 11 11 10 8 6 4 7 7 5 5 5 2 1 0
9 9 9 11 11 10 11 11 13 14 15 15 15 15 15 15 14 14 15 16 16 15 12 11 11 10 9 9 9 9 10 9 9 7 4 5 7 6 6 6 5 1 1
8 9 11 12 12 13 12 12 14 16 17 17 17 16 15 15 15 14 15 16 16 15 15 13 12 11 10 10 9 8 8 8 8 7 7 6 6 6 8 7 7 6 6

GFSMA_con_lsi_069.txt.gz
Lid_Strength_Index
4 5 6 6 6 6 6 7 8 8 8 7 6 5 4 3 3 2 1 -2 -2 -2 -1 -1 -1 -0 0 1 2 2 2 2 3 3 2 2 3 3 3 3 3 3 3
4 5 6 6 6 6 6 6 7 7 7 7 7 7 6 4 3 2 1 0 -2 -2 -2 -1 -1 -0 0 1 2 2 3 3 3 3 3 3 3 3 3 3 3 3 3
5 5 6 6 6 5 5 5 6 6 7 7 8 7 7 6 4 2 2 2 -0 -1 -2 -2 -1 -1 -0 0 2 3 4 3 4 4 3 3 3 3 3 3 3 3 3
4 5 5 5 5 4 5 5 5 6 7 7 7 7 6 5 5 4 4 3 2 1 -1 -2 -2 -1 -0 1 1 3 3 4 4 5 4 4 3 3 3 4 4 4 3
3 4 4 4 4 4 4 4 4 5 6 6 6 7 7 6 5 5 5 5 4 3 3 1 -0 -0 -0 1 2 3 3 4 4 4 4 4 4 4 4 4 4 4 3
2 3 3 3 3 3 3 4 4 5 5 5 5 6 7 7 8 7 6 5 5 4 4 4 3 3 1 1 2 3 2 3 4 3 3 4 4 5 5 5 4 4 4
1 3 3 2 2 2 3 3 4 5 4 5 6 7 7 7 8 9 8 7 6 5 5 5 5 6 5 0 1 2 2 1 2 2 3 3 4 5 5 5 5 4 4
2 2 2 2 2 3 3 3 4 5 5 5 6 7 9 8 7 8 8 9 7 7 6 6 6 7 8 6 4 2 1 1 1 1 2 2 3 4 4 5 5 4 4
1 1 1 1 2 2 3 3 4 4 5 4 5 5 7 8 7 6 7 7 8 8 8 7 7 6 8 7 5 2 1 1 1 1 1 2 2 3 3 4 4 4 4
1 1 1 1 1 1 2 2 3 4 4 5 5 5 5 6 8 8 6 6 6 7 8 8 7 7 7 6 6 4 3 2 1 1 1 1 1 2 2 3 3 4 4
1 0 1 1 1 1 1 2 4 4 4 5 5 6 7 7 6 7 8 7 6 6 6 6 6 6 6 6 7 6 4 4 3 1 1 1 1 1 2 2 3 3 3
1 0 0 1 1 2 2 2 3 4 4 5 5 7 6 7 7 7 8 7 7 7 7 6 6 5 5 6 6 5 5 4 3 2 1 1 1 1 1 2 2 2 3
2 1 0 0 1 2 2 4 4 4 5 5 5 6 5 6 5 6 7 8 8 8 8 7 6 7 6 7 7 5 4 5 4 3 2 1 1 1 1 1 2 2 2
2 1 0 0 1 2 3 4 4 5 5 5 6 6 5 5 6 7 7 9 8 8 8 8 8 8 8 8 7 6 6 5 4 4 3 2 2 1 1 2 2 2 2
2 2 1 1 2 2 2 3 4 5 5 6 6 5 7 6 6 6 6 6 7 10 10 8 10 9 9 9 8 9 8 6 5 5 4 3 3 2 2 2 2 2 2
1 1 2 2 2 2 4 4 5 6 6 7 7 7 7 6 5 6 6 6 7 8 10 8 10 9 9 8 8 8 8 5 5 5 5 5 4 3 2 2 2 2 1
1 1 1 2 2 4 4 5 6 7 7 7 7 7 7 6 6 6 6 6 7 8 9 9 9 9 11 10 9 9 9 9 8 6 5 5 5 4 4 3 2 1 0
1 1 2 2 4 5 5 6 8 7 8 8 7 7 7 6 7 7 6 7 7 7 9 11 10 11 11 10 10 10 8 8 9 7 6 5 5 5 4 3 2 1 1
2 2 2 4 5 5 6 7 7 8 8 7 7 7 7 7 7 6 7 8 9 8 11 12 13 12 12 11 11 10 10 10 8 6 6 6 5 4 3 2 1 1 0
4 4 4 4 5 7 7 8 8 8 8 8 7 7 6 7 7 8 9 12 13 15 14 15 15 14 14 13 13 13 12 12 11 8 7 7 6 4 3 1 1 0 0
6 6 7 7 7 8 8 8 8 8 8 8 8 6 8 9 10 10 13 15 16 16 16 17 17 17 17 16 16 14 13 13 12 11 10 9 8 6 4 1 1 0 0
7 7 7 8 9 8 11 10 9 8 8 8 8 10 11 11 11 11 12 12 14 17 17 18 18 18 18 17 16 15 15 15 16 12 13 11 9 7 5 5 2 1 1
8 9 9 9 9 9 11 10 9 7 8 10 12 12 13 13 13 15 14 15 15 14 15 17 18 18 17 16 15 15 15 14 14 12 12 13 9 7 5 4 2 2 1
9 10 9 9 9 9 10 10 11 11 12 13 13 14 15 15 15 15 16 16 16 16 16 15 16 16 15 13 13 13 13 12 12 11 10 12 8 7 6 4 2 1 1
9 9 9 10 9 9 11 12 12 13 14 15 15 15 15 16 15 15 16 16 16 15 14 14 13 13 12 11 11 12 13 13 14 13 10 9 8 6 7 6 6 1 0
10 11 12 11 11 11 12 12 13 15 16 16 15 15 15 16 15 15 16 17 17 17 17 16 16 15 14 13 12 12 12 13 13 13 9 9 7 8 8 6 5 5 3

GFSMA_con_lsi_072.txt.gz
Lid_Strength_Index
5 5 6 6 6 7 7 8 7 7 7 7 6 5 4 3 2 2 1 -1 -2 -2 -2 -2 -1 -0 0 1 1 2 2 2 2 2 2 2 2 3 3 3 3 3 3
5 6 7 7 6 6 7 7 8 8 8 8 7 5 4 3 3 2 1 -1 -2 -2 -2 -2 -1 -1 0 1 1 2 2 3 3 3 3 3 3 3 3 3 3 3 3
5 6 6 6 6 6 6 7 8 9 9 8 7 6 4 4 3 1 1 0 -1 -2 -2 -2 -1 -1 -0 0 1 2 3 3 4 4 4 3 3 3 4 4 4 4 4
5 5 6 6 5 5 6 6 7 8 8 8 8 7 7 5 4 2 2 1 1 0 -1 -2 -1 -1 -0 0 1 2 3 3 3 4 3 3 3 3 4 4 4 4 4
4 5 5 5 4 5 5 5 6 6 7 7 8 8 7 6 5 4 3 2 2 2 2 -0 -1 -0 -0 0 1 1 2 3 3 4 3 3 3 4 5 5 5 4 4
4 4 4 4 4 4 4 5 5 5 5 6 5 6 7 6 6 5 5 5 4 3 3 3 2 2 1 0 1 2 2 3 3 3 2 3 3 4 5 5 5 5 5
3 3 3 3 3 3 4 4 4 4 4 5 6 6 6 7 7 8 7 6 6 5 4 4 4 4 3 1 1 2 2 2 1 1 2 2 3 4 4 4 5 5 5
2 2 3 2 2 3 4 4 4 5 5 5 6 7 8 7 7 7 7 7 6 5 5 4 4 5 5 4 3 1 1 1 0 1 1 1 2 2 3 4 4 4 4
2 2 2 2 2 3 3 4 4 4 5 4 4 5 7 9 7 6 7 7 7 7 6 5 5 5 5 6 4 3 2 1 -0 0 0 0 1 1 2 3 3 3 4
2 2 2 2 2 2 3 3 3 3 3 5 5 5 5 6 7 7 7 6 7 8 7 7 6 5 5 5 5 5 4 3 1 0 0 0 0 0 1 2 2 3 3
2 2 2 1 1 1 2 2 3 3 3 4 4 6 6 6 6 6 7 6 6 5 5 5 5 6 6 6 5 5 4 4 3 1 0 0 0 -0 0 1 1 2 2
3 3 2 2 1 1 2 2 2 3 3 3 4 6 6 6 7 7 7 8 6 6 6 6 5 5 5 5 5 5 5 4 4 3 2 1 0 0 -0 0 1 1 1
3 3 2 2 1 1 1 2 2 3 4 5 5 5 5 5 5 5 6 6 7 7 8 7 6 6 6 6 6 5 4 5 4 4 3 2 1 0 0 0 0 0 0
4 3 2 1 2 1 2 3 4 3 3 4 4 4 5 5 5 5 6 6 8 10 9 7 7 7 7 7 7 5 5 6 5 5 4 3 2 1 1 1 1 1 1
3 3 3 2 2 2 2 2 2 3 4 4 5 5 5 5 6 6 5 5 6 9 9 7 8 8 7 7 7 7 8 7 6 6 5 4 3 2 2 1 1 1 1
3 3 2 3 2 3 2 2 2 3 4 5 5 6 6 7 6 6 6 5 6 7 9 8 9 8 8 8 7 7 8 6 6 6 6 5 5 4 3 3 2 2 1
2 2 2 2 2 2 3 3 3 5 5 6 7 6 6 6 7 6 7 6 7 7 8 7 8 9 9 9 9 9 8 9 8 7 6 6 6 5 5 4 4 3 2
1 1 1 2 2 2 4 4 5 6 6 7 7 7 7 6 8 6 6 7 7 7 8 9 9 9 10 10 10 10 10 9 9 8 7 7 6 6 6 5 4 4 3
2 1 1 2 3 4 5 5 5 6 6 6 7 7 7 7 7 7 7 7 8 8 9 10 11 11 12 12 12 12 11 11 10 9 9 8 8 7 7 6 5 4 4
2 2 3 3 4 5 5 5 6 7 7 8 8 8 8 7 7 7 8 9 11 12 13 14 15 15 14 13 14 15 15 13 13 12 11 10 9 8 7 7 6 5 4
1 2 3 4 5 5 6 7 7 8 8 9 8 8 8 8 9 9 11 13 13 14 15 16 17 16 17 17 17 15 15 14 14 13 13 11 10 11 10 9 8 7 5
3 4 6 7 8 8 10 10 9 9 8 8 11 12 12 11 12 11 12 12 13 15 17 18 18 18 17 17 16 16 16 16 16 13 13 13 11 12 11 10 9 7 5
6 7 8 8 8 8 11 11 11 9 9 11 13 13 13 12 12 13 13 14 14 14 15 16 17 17 17 16 15 16 15 15 15 13 12 14 12 12 10 9 8 6 4
7 7 8 8 9 10 12 11 11 12 13 13 12 13 14 14 14 14 15 15 15 15 15 15 15 15 15 15 14 14 14 14 13 12 11 15 12 12 10 8 7 4 3
9 9 9 10 10 12 12 13 13 14 15 15 14 14 14 14 13 13 15 15 16 15 15 15 14 15 14 14 13 14 15 16 16 14 11 13 12 12 10 8 6 5 4
10 10 11 10 12 14 13 13 13 14 15 15 15 15 14 15 14 14 15 16 17 17 17 17 17 17 16 15 14 15 15 16 15 15 11 13 11 10 11 8 7 6 4

GFSMA_con_lsi_075.txt.gz
Lid_Strength_Index
4 5 4 4 4 2 1 2 3 3 3 2 2 2 2 1 0 -0 -1 -1 -1 -1 -1 -1 -1 -1 -0 0 1 1 1 1 1 2 2 2 2 3 3 3 3 3 3
5 5 5 5 5 4 3 3 3 3 2 2 2 2 2 1 0 -1 -1 -1 -1 -2 -2 -2 -1 -1 -0 0 1 1 2 2 2 2 2 3 3 3 3 4 3 3 3
5 5 5 5 5 5 5 4 3 3 3 3 3 2 1 1 -0 -1 -1 -1 -2 -2 -2 -2 -2 -1 -0 0 1 1 2 3 3 3 3 3 3 4 4 4 4 4 4
4 4 3 4 4 4 5 5 5 4 4 4 3 2 1 0 -0 -0 -1 -2 -2 -2 -1 -2 -2 -1 -1 -0 1 2 3 3 4 4 3 4 4 4 4 4 4 4 4
3 3 3 3 3 4 4 5 5 4 5 5 4 3 2 2 1 1 -1 -2 -2 -2 -1 -1 -1 -1 -1 -0 0 1 2 3 3 3 3 4 3 3 4 4 4 4 4
3 3 4 4 3 3 3 3 4 3 4 5 6 5 4 3 2 2 1 0 -0 -1 -1 -0 -0 0 0 -1 0 1 2 2 3 3 3 2 2 3 3 4 4 4 4
3 4 4 3 2 2 2 2 3 3 3 3 4 4 3 3 4 3 3 3 3 1 0 1 1 0 0 0 -0 1 1 1 1 2 1 1 1 2 3 3 3 4 4
3 3 2 2 2 2 2 2 2 2 2 3 3 3 4 3 3 4 4 4 4 3 4 3 2 2 1 0 1 0 1 1 1 0 1 1 1 1 2 2 3 3 3
2 2 2 1 1 1 1 1 1 2 2 2 2 2 5 5 4 4 4 6 6 4 3 3 3 3 2 3 2 2 1 1 0 0 -0 -1 -0 0 0 1 2 2 3
2 1 1 1 0 0 -0 0 1 1 1 2 2 3 2 2 4 5 3 3 4 5 6 5 5 4 1 3 3 3 3 3 2 1 0 -0 -0 -0 -0 0 1 1 2
2 1 1 0 0 0 -0 -0 1 1 0 1 3 4 4 4 3 3 5 3 3 3 4 5 5 4 4 4 4 4 4 4 4 3 2 1 0 -0 -0 -0 -0 0 1
1 0 0 -0 -1 -1 -0 -0 -0 0 0 2 1 1 1 2 3 4 4 4 5 3 2 2 3 4 5 6 4 4 5 5 4 3 2 2 1 1 0 0 -0 -0 -0
1 1 0 -0 -0 -1 -1 -1 -0 -0 0 0 0 1 1 1 2 4 5 6 5 4 4 5 4 5 5 3 3 4 4 5 5 4 3 3 2 2 2 1 1 0 0
0 -0 -0 -0 -1 -1 -1 -1 -0 -0 -0 -0 0 1 2 3 3 4 5 6 8 6 5 4 3 4 4 4 5 5 4 6 6 6 5 4 4 3 3 2 2 1 1
-0 0 -0 -0 -1 -1 -1 -1 -0 0 -0 0 0 0 2 3 4 5 5 5 5 6 4 3 3 4 3 2 4 3 3 5 6 6 6 5 5 4 4 4 3 2 2
0 0 0 0 0 -0 -0 -0 0 -0 1 2 2 3 4 5 5 5 6 5 4 4 5 2 4 4 4 4 5 3 4 6 7 8 7 7 6 6 6 5 5 4 4
0 1 1 0 0 0 0 1 0 1 1 2 3 3 4 6 6 6 5 5 5 5 6 5 5 5 5 4 4 4 5 6 7 8 8 7 7 7 6 6 6 6 5
1 0 0 0 0 1 1 2 2 2 3 4 5 5 5 6 6 6 6 6 5 5 6 7 7 5 7 5 6 7 8 9 9 9 9 9 9 8 8 8 8 7 6
1 0 0 1 1 0 1 1 2 4 4 4 4 5 6 6 7 6 6 6 6 6 7 8 9 6 8 7 8 10 10 11 10 10 10 10 10 10 9 9 8 8 8
1 1 1 1 1 0 1 2 3 4 4 5 6 6 6 6 7 7 7 8 9 10 10 11 11 9 9 9 10 12 12 11 11 11 10 11 10 10 9 9 9 9 8
1 1 1 2 2 3 3 4 3 4 5 7 7 7 8 7 8 8 9 9 11 12 12 13 12 11 11 12 13 12 13 12 11 10 11 10 10 9 8 8 8 8 8
1 1 1 1 3 3 8 8 6 6 7 8 10 11 10 11 12 12 12 11 11 12 13 12 12 12 12 12 12 13 13 13 14 10 11 11 9 10 9 8 8 9 8
1 2 2 3 4 5 10 10 10 8 8 10 12 13 13 13 14 13 14 13 13 14 13 12 12 13 13 12 13 13 13 13 13 11 12 12 10 10 8 8 8 8 8
2 4 6 6 7 8 12 11 11 10 12 13 13 13 14 14 14 14 14 15 14 13 13 13 12 12 13 12 13 13 13 13 12 11 10 13 10 10 8 7 7 7 7
7 7 8 8 10 12 12 13 12 13 14 15 14 15 15 15 14 13 15 15 15 14 14 15 15 15 15 15 14 13 14 15 15 13 11 12 10 10 9 8 6 7 7
9 10 11 10 12 12 13 13 13 15 16 16 16 16 14 14 14 14 14 15 15 15 15 15 15 15 15 15 16 14 14 15 15 15 10 12 11 11 12 7 7 6 5

GFSMA_con_lsi_078.txt.gz
Lid_Strength_Index
2 1 -0 -0 0 0 -0 0 0 1 2 2 1 1 1 1 1 1 0 0 -1 -1 -1 -1 -0 -0 -0 -0 0 0 1 1 1 1 2 2 2 3 3 3 3 3 3
3 3 2 2 1 0 0 1 1 2 2 2 2 2 1 1 0 0 0 -1 -1 -1 -1 -1 -1 -1 -1 0 1 1 1 1 1 2 2 3 3 3 3 4 4 4 4
3 3 3 3 3 1 1 1 1 2 3 3 2 2 1 1 0 -0 -0 -1 -1 -1 -1 -2 -2 -1 -0 0 1 1 2 2 2 3 3 3 3 4 4 5 4 4 4
3 4 4 4 3 3 2 2 2 3 3 3 3 2 2 1 0 -0 -1 -2 -2 -2 -2 -2 -2 -2 -1 -0 1 1 2 3 3 3 3 3 3 4 4 4 4 4 4
3 3 4 3 3 3 4 4 3 3 3 3 3 2 2 1 -0 -0 -1 -1 -2 -2 -2 -1 -2 -2 -1 -0 0 1 2 2 3 3 3 3 3 3 3 3 4 4 4
2 2 2 2 2 3 3 3 3 3 3 3 4 4 2 1 0 -0 -0 0 -1 -1 -2 -2 -1 -1 -0 -1 -0 -0 0 1 2 2 2 2 2 2 2 3 3 3 3
2 2 2 2 2 3 2 3 2 3 3 3 4 4 3 2 1 1 1 0 -0 -1 -1 -1 -1 -1 0 -0 -1 -0 0 0 1 1 2 2 2 2 2 2 3 3 3
2 2 1 1 1 1 2 2 1 2 1 3 3 2 3 3 3 2 2 2 1 2 1 -0 -1 -0 -0 -0 -0 -1 -0 0 0 0 0 1 0 0 1 1 2 2 2
2 2 2 1 2 1 1 1 1 2 2 2 1 2 4 5 3 2 2 3 2 3 3 2 1 1 1 1 1 1 1 0 -1 -1 -1 -1 -1 -0 0 0 0 1 1
2 2 1 0 1 0 0 0 1 1 0 2 1 1 0 1 5 4 1 3 4 4 4 3 2 2 2 2 1 2 3 2 2 0 -0 -0 -0 0 -0 -0 -0 -0 0
1 2 1 1 1 -0 -0 -0 -0 -0 -0 1 1 1 1 3 3 3 4 3 1 1 1 3 2 2 2 2 0 0 4 4 3 2 2 2 1 1 1 0 0 -0 -1
3 2 2 0 0 -0 -0 -0 -0 -0 -0 0 0 0 1 3 2 3 3 3 3 3 1 2 0 1 1 3 2 4 5 4 4 3 3 2 2 2 2 2 1 0 -0
2 2 1 1 -0 -1 -1 -1 -0 -0 -0 0 0 1 0 1 1 1 2 4 4 4 4 2 1 0 2 3 3 4 4 5 4 4 4 4 4 3 3 3 2 2 1
0 1 1 0 -1 -1 -1 -1 -1 -0 -1 -0 -0 0 0 0 0 0 2 5 7 5 5 3 2 2 2 1 2 4 3 5 6 6 5 5 5 4 4 4 4 3 3
-0 -0 -1 -0 -1 -1 -1 -1 -0 -0 -0 -0 -0 -0 0 0 0 -0 2 3 5 8 7 4 3 2 3 2 3 2 1 6 6 6 6 6 6 6 6 6 5 5 5
-0 -0 -0 -0 -0 -1 -1 -1 -0 -0 -0 -0 0 0 0 0 0 2 3 2 4 5 6 2 3 3 2 2 4 2 2 6 5 7 7 7 7 7 7 7 8 7 7
-0 -0 -0 -0 -0 -0 -0 -0 -0 -0 0 0 0 1 1 2 3 3 4 4 5 4 5 5 3 3 3 2 4 3 2 3 3 7 8 8 8 8 8 9 9 9 8
-0 -0 -0 -0 0 -0 -0 0 0 0 1 1 1 2 2 3 4 4 5 4 5 5 5 5 5 4 4 4 5 3 4 5 6 7 9 9 9 9 9 9 9 9 9
0 -0 0 0 0 0 0 -0 0 1 1 0 1 3 4 5 4 5 6 5 5 6 5 4 8 7 7 6 7 6 6 7 8 8 9 9 9 9 10 10 9 9 9
0 0 0 0 0 0 0 0 0 1 0 0 1 3 4 5 5 6 6 6 6 6 9 8 8 8 8 8 8 9 8 8 8 8 9 10 10 9 9 9 9 9 9
0 0 0 0 0 0 0 1 1 1 1 2 3 4 4 5 7 6 6 8 9 9 11 10 10 11 10 10 11 9 10 9 9 8 9 8 8 8 8 8 8 8 9
0 0 1 1 1 1 5 7 3 1 2 3 6 7 7 8 10 10 10 10 9 11 10 9 10 12 11 10 10 10 10 11 11 8 9 9 8 9 8 8 8 9 9
1 1 1 1 1 0 8 9 9 1 3 5 8 11 11 11 11 13 14 14 15 15 14 11 11 11 11 10 11 11 11 11 11 9 10 11 9 9 8 8 8 8 8
2 1 1 1 1 1 10 10 10 6 8 9 11 11 13 14 14 15 15 16 15 15 14 13 12 12 11 11 11 11 11 11 11 11 10 12 10 10 9 8 8 8 8
2 2 2 2 3 7 12 12 10 12 13 14 13 14 14 15 15 14 15 16 16 16 14 14 15 15 15 15 14 12 13 13 13 12 11 12 11 10 10 9 7 8 8
4 8 9 9 10 11 12 12 11 14 15 16 15 16 15 15 15 15 16 16 17 15 15 16 15 15 15 14 16 14 13 14 14 14 11 12 12 12 13 9 7 7 6

GFSMA_con_lsi_081.txt.gz
Lid_Strength_Index
0 0 0 -1 0 1 1 1 1 1 1 1 1 1 1 1 1 1 1 1 1 0 -0 -2 -1 -1 -0 1 0 0 0 0 1 1 1 1 2 2 3 4 4 4 3
1 1 1 0 0 0 1 1 1 1 1 1 1 1 1 1 1 1 1 1 1 -0 -1 -1 -1 -0 1 0 0 1 1 1 1 1 1 2 3 4 4 5 5 4 4
1 1 1 1 0 0 -0 0 1 2 2 2 2 2 1 1 1 0 1 1 1 0 -0 -1 -1 -0 0 -0 1 1 1 1 1 2 2 3 3 4 5 5 5 5 4
2 3 2 1 0 0 1 1 2 3 3 3 2 2 2 1 1 0 1 1 0 0 -1 -1 -1 -2 -1 0 0 0 1 2 2 2 3 3 3 3 4 4 5 4 4
3 3 3 2 1 2 2 2 2 2 3 3 3 2 2 2 1 1 1 0 -0 -1 -1 -1 -2 -1 -1 -1 -0 0 1 2 2 2 3 3 3 3 3 4 4 3 3
3 3 3 3 3 3 3 2 2 2 3 3 4 3 2 2 1 1 1 0 -1 -1 -2 -2 -1 -1 -1 -1 -1 -0 -0 1 1 2 2 2 2 2 3 3 3 2 3
3 3 3 3 3 3 3 2 2 2 2 2 4 4 3 2 2 2 0 -0 -0 -1 -1 -1 -1 -0 -0 -0 -1 -1 -1 -1 -0 0 1 1 1 2 2 2 2 2 2
3 2 2 2 2 3 1 1 2 2 2 2 4 4 5 4 3 2 1 1 -0 0 0 -0 -0 -1 -1 -1 -1 -1 -1 -1 -1 -0 -0 -0 0 0 0 0 1 1 2
2 1 1 1 2 0 1 0 0 1 2 2 1 2 4 5 3 2 1 2 0 0 1 1 0 0 -1 -1 -0 -0 1 1 -1 -1 -1 -1 -2 -1 -1 -1 -0 -0 0
2 1 1 1 0 0 0 1 0 0 1 2 3 2 0 1 4 5 2 1 2 4 2 2 2 0 -0 -1 0 2 3 3 1 -0 -0 -0 -1 -0 -1 -1 -1 -1 -1
2 2 1 1 1 1 -0 0 0 0 0 1 2 1 1 1 1 3 5 3 1 2 1 2 2 1 1 1 1 1 4 4 4 2 1 0 0 0 0 0 0 0 -0
3 2 1 2 1 1 0 -0 -0 0 0 0 1 1 2 3 3 3 4 3 3 2 1 1 1 2 1 1 2 4 4 5 4 3 3 2 1 2 2 2 2 1 1
3 3 2 1 1 1 -0 -0 -0 0 0 1 1 1 1 1 1 1 2 3 3 2 3 0 1 0 0 0 1 4 5 6 5 4 2 3 3 3 3 3 2 2 2
2 2 2 2 1 1 0 -1 -0 -0 -0 0 0 0 1 0 0 1 2 3 5 3 2 2 1 2 1 1 2 6 4 7 5 5 4 4 4 4 4 4 3 3 3
1 1 0 0 0 -0 -0 -0 0 0 -0 0 0 0 0 0 -0 0 0 1 3 6 5 3 4 2 1 2 5 4 3 6 6 6 6 6 6 6 6 5 5 5 5
-0 -0 -0 -0 0 -0 -0 -0 0 -0 0 0 0 0 0 0 0 0 1 1 1 4 5 4 3 2 2 4 6 3 2 6 6 6 7 7 7 8 7 7 7 7 7
0 0 0 0 0 0 -0 0 0 0 1 0 0 1 1 0 1 1 0 2 3 4 5 4 2 2 4 3 5 3 3 3 3 6 7 8 8 8 8 8 8 8 9
0 0 0 0 0 0 0 0 1 0 1 1 1 1 1 1 1 1 2 3 4 4 5 5 5 4 4 3 4 4 4 4 4 6 8 9 9 9 9 8 8 9 9
0 0 0 1 1 0 0 0 0 1 1 1 1 1 1 1 1 2 3 4 4 4 4 5 6 6 5 5 5 6 8 6 6 7 9 9 9 8 8 8 9 9 9
1 0 0 0 0 0 0 0 0 1 1 1 0 1 1 1 1 3 4 4 4 6 6 6 8 8 8 8 8 9 9 7 9 8 8 9 8 8 8 9 9 9 9
1 0 1 0 0 0 1 0 1 1 1 1 1 1 1 1 5 4 4 5 6 7 8 8 11 10 11 11 11 10 11 11 10 8 8 8 8 8 8 9 9 8 8
1 1 1 1 1 1 5 7 3 1 1 1 2 2 3 6 6 8 9 9 7 7 9 10 11 11 11 11 12 13 12 12 11 7 9 9 8 9 8 8 9 10 9
1 1 1 1 1 1 7 8 8 1 1 1 2 2 6 7 9 11 14 14 14 13 13 11 12 13 13 13 12 13 11 11 11 9 9 10 9 10 8 9 9 9 9
1 1 1 1 1 1 8 8 9 3 2 2 3 5 8 10 11 13 14 15 15 15 14 13 14 14 13 12 12 12 10 11 11 11 10 12 10 10 8 8 9 9 9
2 2 1 1 1 1 11 10 9 6 10 12 12 12 12 14 14 13 15 16 16 16 15 15 15 16 16 15 15 12 13 14 13 13 10 11 11 12 10 10 9 9 9
2 2 2 5 9 4 11 11 10 12 14 15 15 15 15 15 15 15 15 16 17 18 17 17 17 17 17 16 16 15 14 14 14 14 11 12 12 12 14 10 10 9 9

GFSMA_con_lsi_084.txt.gz
Lid_Strength_Index
0 0 -0 0 1 2 3 3 3 3 3 3 2 2 2 2 2 2 2 1 1 0 1 1 1 0 -1 -0 -0 1 1 0 0 1 1 1 1 2 3 3 3 3 3
1 0 1 1 2 3 3 3 3 3 3 3 2 2 2 2 3 2 2 2 1 1 1 1 0 -1 -1 -0 0 1 0 1 1 1 1 1 2 3 4 4 4 4 4
0 1 1 2 2 2 3 2 2 3 3 3 3 2 2 2 2 3 3 3 2 1 1 0 0 -1 -0 0 1 0 0 1 0 1 1 2 3 3 4 4 5 5 5
1 1 2 2 1 1 2 2 4 4 4 3 4 3 3 2 2 3 3 3 2 2 1 0 -0 -1 -0 0 -1 0 1 1 1 2 2 2 3 3 4 4 4 5 4
2 2 2 2 1 2 2 3 3 4 5 4 4 4 3 3 3 2 2 3 2 2 2 0 -0 -1 -1 -1 -0 -0 0 1 1 1 1 2 2 3 3 3 4 4 4
3 3 3 3 2 3 3 3 4 4 5 5 5 5 4 3 3 3 2 2 2 2 2 1 0 0 -1 -1 -1 -1 -0 -0 1 1 1 1 2 2 2 2 3 3 3
3 3 3 3 3 4 4 4 4 5 5 5 5 5 4 3 3 3 3 3 2 2 1 1 1 1 1 -0 -1 -1 -1 -1 -0 0 1 1 1 1 1 1 1 1 2
3 3 3 4 4 4 4 4 4 5 4 3 5 5 7 6 4 3 3 2 2 2 2 1 1 1 1 1 0 -1 -2 -2 -2 -1 -0 0 0 0 1 0 0 0 1
3 4 4 4 4 4 4 4 4 4 4 4 3 4 6 7 6 4 4 4 3 2 2 2 1 1 1 1 0 -0 0 -1 -2 -1 -1 -1 -1 -1 -0 -0 -1 -1 -1
4 4 4 3 3 3 3 3 2 3 3 4 4 3 3 3 5 6 3 3 3 3 3 3 3 2 2 1 0 1 2 2 2 -0 -1 -1 -0 -1 -0 -1 -1 -1 -1
3 2 2 2 3 1 2 2 2 2 2 2 4 3 3 2 2 4 6 4 3 3 4 3 3 3 3 2 2 1 3 4 3 1 -0 -0 -0 0 0 0 0 -0 -0
3 3 2 2 1 2 1 1 2 2 2 2 1 1 2 3 3 4 5 4 4 3 3 3 3 4 4 3 2 3 4 4 4 3 2 1 1 0 0 1 1 1 1
4 3 2 2 2 2 1 1 1 1 1 2 2 2 1 2 2 2 3 4 4 3 3 2 3 3 3 3 2 3 4 6 5 4 4 3 2 1 2 2 2 2 2
4 3 2 2 2 1 1 1 2 2 1 1 1 1 1 1 1 2 2 4 5 5 4 4 2 1 1 1 2 5 5 6 6 6 5 4 4 3 3 4 4 4 3
3 2 2 1 1 1 1 1 1 1 1 1 1 1 1 1 1 1 2 2 4 6 6 4 3 2 1 3 3 5 6 7 7 6 5 5 5 4 4 5 5 5 5
2 2 2 2 2 1 1 1 1 0 1 1 1 1 1 1 1 1 1 1 2 3 5 3 4 4 3 3 6 6 5 7 7 7 6 7 7 7 7 7 7 7 7
2 2 2 2 2 1 1 1 1 1 1 1 1 1 1 1 1 1 1 1 2 2 4 3 4 4 3 5 7 7 6 7 8 7 8 8 8 8 8 9 9 9 8
1 2 2 2 2 2 2 2 2 1 2 2 1 1 2 1 1 1 2 2 2 2 3 5 4 5 5 5 7 7 6 5 6 7 8 8 8 9 9 9 9 10 10
1 1 1 1 1 1 2 2 2 1 1 1 1 1 2 2 2 2 1 2 2 3 3 4 4 6 6 6 7 7 7 8 8 7 8 9 9 9 9 9 9 10 10
1 1 1 1 1 1 1 1 1 1 1 1 1 1 1 2 2 2 2 3 3 4 4 5 5 7 8 8 8 9 10 9 10 9 9 10 10 10 9 10 10 10 9
1 1 1 1 1 1 1 1 1 1 1 1 1 1 1 2 5 3 2 3 4 5 5 6 8 10 11 11 9 9 10 11 11 11 11 11 11 11 11 9 10 9 9
1 1 1 1 1 1 5 7 3 1 1 2 2 2 1 6 6 8 7 7 5 5 6 6 6 8 9 10 11 12 14 14 15 11 12 12 12 13 11 11 9 9 9
1 2 2 1 2 1 7 8 8 2 2 2 2 2 4 6 7 6 11 12 13 12 13 7 8 11 13 13 13 14 14 14 14 12 12 15 13 14 11 10 9 9 9
2 2 2 2 2 1 8 9 9 4 2 2 3 4 4 8 8 10 12 13 14 14 14 13 13 14 13 12 12 13 13 13 13 12 12 17 14 15 13 12 10 9 9
2 2 2 2 2 2 8 9 9 4 3 8 11 11 10 12 12 11 13 15 16 17 15 14 14 14 14 14 14 14 15 16 16 15 13 14 15 15 15 14 12 10 10
2 2 2 6 10 4 12 12 10 9 13 14 14 15 14 14 14 13 14 15 17 18 17 17 17 17 16 15 16 16 15 16 16 16 15 15 15 16 17 15 14 13 13

GFSMA_con_lsi_087.txt.gz
Lid_Strength_Index
0 1 0 1 1 2 2 4 4 5 5 4 3 3 2 2 2 2 2 1 1 0 0 0 1 1 1 1 -0 -1 -0 0 1 0 0 1 2 1 2 2 3 3 3
0 0 0 1 2 2 3 4 4 4 5 4 4 2 2 2 2 2 2 2 1 1 1 0 1 1 1 0 -0 -0 -0 1 0 1 1 1 2 2 3 3 3 3 3
0 0 0 2 3 3 4 4 4 4 5 3 4 3 2 3 2 3 3 3 2 2 1 0 1 1 0 -0 -1 -0 1 1 0 1 1 2 2 3 3 4 4 4 4
0 0 0 1 3 3 4 3 3 4 5 5 5 4 3 3 3 3 3 3 4 3 2 1 0 0 0 -0 -0 0 1 -0 1 0 1 2 2 3 3 4 4 4 4
1 1 1 1 2 3 4 3 4 4 5 5 5 5 4 3 3 3 3 3 3 3 3 1 1 0 -0 -0 -1 -0 -1 -0 0 1 1 1 2 2 3 3 3 4 3
1 0 1 2 2 2 3 3 4 5 4 5 4 5 5 3 3 4 3 3 3 3 3 3 2 2 0 -1 -1 -0 -1 -0 0 0 0 1 1 1 2 2 2 3 3
1 2 2 3 3 3 4 4 5 5 6 5 6 6 5 5 4 4 3 3 3 3 3 2 2 2 1 -1 -1 -1 -1 -1 -1 -0 -0 0 1 1 2 2 2 2 2
2 2 3 3 3 4 4 5 6 6 6 5 6 6 8 6 5 4 3 3 3 3 3 2 2 2 2 1 1 -1 -1 -2 -2 -2 -1 -1 0 1 1 1 1 0 1
2 3 3 3 3 4 4 5 5 6 6 5 5 6 8 8 7 5 5 4 4 4 3 2 2 2 1 2 1 1 0 -0 -2 -3 -2 -1 -0 -0 0 1 1 1 0
3 3 3 3 4 4 5 5 5 5 5 6 5 3 4 4 7 7 5 5 5 4 4 3 1 1 1 1 1 1 2 2 0 -2 -2 -2 -1 -1 -0 -0 -1 -1 -1
4 4 4 4 4 4 4 4 4 4 4 5 5 5 5 4 4 6 7 4 4 4 4 3 2 2 1 1 1 1 3 3 3 1 -0 -1 -1 -1 -1 -0 -1 -1 -1
4 4 4 4 3 3 3 4 3 3 3 3 3 4 5 5 4 4 5 5 5 4 3 4 4 4 3 3 3 3 3 4 4 2 1 0 -1 -1 -0 -0 -0 -0 -0
5 5 4 4 4 3 2 2 3 3 3 2 2 3 2 3 2 3 4 5 5 4 4 4 4 3 3 4 4 4 3 5 4 3 2 2 1 1 1 0 0 0 1
4 4 3 2 3 3 2 2 2 2 2 2 2 2 2 2 1 2 3 4 5 5 5 4 3 3 4 4 3 4 3 6 6 5 4 3 3 3 2 1 2 2 3
3 3 2 2 2 2 2 1 2 2 2 2 2 2 2 2 1 1 2 2 3 6 7 5 4 3 2 2 3 3 3 5 6 6 6 5 4 4 3 3 3 4 4
3 3 2 2 2 1 1 1 1 1 2 2 2 2 2 2 1 1 1 2 2 3 5 4 4 3 3 2 2 3 4 6 7 8 7 7 6 6 6 5 5 5 5
3 3 3 3 2 2 1 1 1 1 1 1 1 2 2 2 2 2 1 1 2 2 4 3 4 4 4 4 4 5 5 6 7 8 8 8 8 7 7 7 7 7 8
3 3 3 3 2 2 2 2 2 2 2 1 1 1 1 1 2 2 2 2 2 1 2 4 3 5 4 3 4 6 5 5 6 8 8 8 8 8 9 9 9 9 10
3 3 3 3 3 2 2 2 2 3 3 2 2 2 2 2 2 1 2 2 2 2 2 3 3 4 4 5 7 7 6 6 7 7 9 9 9 9 9 10 9 10 10
2 3 3 3 3 3 3 2 2 2 2 2 2 2 2 1 2 2 2 2 2 2 3 3 4 4 7 7 6 7 8 9 8 7 8 8 9 9 9 10 10 10 10
2 2 3 3 3 3 3 2 2 2 2 3 2 1 1 2 4 3 2 2 2 3 3 4 4 6 8 11 8 7 7 8 11 10 11 10 11 11 10 10 10 10 9
1 2 2 3 3 3 6 7 4 2 2 2 2 2 1 5 5 7 7 6 4 3 3 4 5 6 7 6 6 7 9 13 13 10 12 12 10 11 11 11 10 10 10
2 2 2 2 2 2 7 8 8 2 2 2 2 2 2 2 6 4 9 10 12 12 13 5 5 5 6 8 12 13 14 15 15 12 13 15 11 12 11 11 10 10 10
2 2 2 2 2 1 8 8 10 4 2 2 2 2 3 4 6 6 9 12 15 15 14 13 13 14 12 12 12 13 13 14 13 13 13 15 13 14 13 12 10 10 10
2 2 2 2 2 2 8 9 9 4 3 3 7 10 6 7 11 10 12 15 16 16 14 13 13 13 14 13 13 13 15 15 16 16 14 15 15 15 14 14 13 11 11
3 2 3 2 4 2 9 9 9 4 5 13 15 14 14 12 13 13 13 15 17 17 17 16 16 16 15 15 15 15 14 15 16 16 16 16 16 16 17 15 15 15 14

GFSMA_con_lsi_090.txt.gz
Lid_Strength_Index
0 0 1 0 1 2 3 4 4 4 5 4 3 3 3 3 3 2 2 1 0 -0 0 0 0 1 1 1 1 0 -0 -0 -1 -0 1 1 0 0 1 1 2 2 2
0 0 1 1 1 2 3 4 5 5 5 4 4 3 3 3 3 3 2 2 1 1 0 0 1 1 1 1 1 1 -0 -1 -0 1 1 1 1 1 2 2 2 3 3
0 0 1 2 2 2 3 4 5 5 5 4 4 3 3 3 3 3 3 2 2 1 1 1 1 1 1 1 1 0 -0 -0 0 1 1 1 2 2 3 3 3 3 4
1 0 1 2 2 3 4 4 5 5 6 5 4 4 4 4 3 3 3 3 3 3 2 1 1 1 1 1 1 -1 -1 -0 0 1 1 1 2 2 3 3 3 3 4
0 0 1 1 2 3 5 4 5 5 5 5 4 4 4 4 4 3 3 3 4 4 4 1 1 1 1 1 0 -1 -1 -0 0 -0 1 1 1 2 2 3 3 4 4
0 0 1 2 3 4 4 3 5 5 5 5 4 4 4 4 4 4 4 3 3 4 4 3 3 3 1 0 0 -0 -1 -1 -0 -0 -0 0 1 1 1 2 2 3 3
1 1 2 2 3 4 4 3 4 5 5 5 5 6 5 4 5 4 4 4 4 4 4 3 3 3 3 0 -1 -1 -1 -1 -1 -1 -1 -0 -0 -0 0 1 2 2 2
1 1 1 1 2 4 4 4 5 6 5 5 6 7 7 6 6 4 4 4 3 3 3 3 3 3 3 2 1 -1 -1 -2 -2 -1 -1 -1 -1 -0 1 1 1 1 1
1 1 2 2 3 4 4 4 5 5 5 6 5 6 9 9 7 6 5 3 3 3 3 3 3 3 3 2 1 0 1 -0 -2 -2 -2 -2 -2 -1 -1 1 1 1 1
2 2 2 2 3 4 4 4 4 4 5 6 6 5 5 6 8 8 6 5 4 3 3 3 3 2 2 2 1 2 2 3 1 -2 -2 -2 -2 -1 -1 -1 -0 0 0
3 2 2 3 4 3 4 4 5 5 4 5 6 6 6 5 5 7 8 6 5 5 4 3 3 2 2 1 2 2 3 3 2 0 -1 -2 -2 -1 -1 -1 -1 -1 -0
4 4 3 3 3 3 4 4 4 4 4 5 5 5 5 5 5 5 6 6 6 5 4 4 3 2 2 1 1 2 3 4 4 2 1 -0 -1 -2 -2 -1 -1 -1 -0
5 5 4 4 4 3 3 4 4 4 4 4 5 4 4 4 3 4 4 5 5 4 4 4 4 3 3 3 3 3 4 5 5 3 2 1 1 0 -0 -1 -1 -1 -0
4 4 4 5 4 3 3 3 3 3 4 3 3 3 3 3 3 3 4 4 6 6 5 4 3 4 3 3 4 5 4 6 5 5 4 3 2 2 1 1 0 0 -0
4 4 4 4 4 3 2 3 3 4 4 4 4 3 3 2 2 2 2 3 4 7 7 5 3 2 2 2 3 3 4 5 6 6 6 4 3 3 2 2 2 2 2
3 3 3 2 2 2 2 2 2 2 3 3 2 3 2 3 2 2 2 2 2 3 5 4 4 2 2 2 2 3 3 4 6 7 7 6 5 4 4 4 4 4 4
4 4 3 3 2 2 2 2 1 2 2 2 2 2 2 2 2 2 2 2 2 2 4 3 2 2 3 3 2 4 3 3 3 7 7 7 6 6 6 6 6 6 5
4 3 3 3 3 2 2 2 3 2 2 2 2 2 2 2 3 3 2 2 2 2 3 4 3 3 4 4 3 5 4 4 4 6 8 7 7 7 7 7 7 7 6
4 4 3 3 3 3 3 3 2 3 3 2 2 2 2 2 2 2 2 2 2 2 2 3 3 2 3 5 5 5 6 5 5 6 8 8 7 7 8 8 8 8 8
3 4 4 4 4 3 3 3 2 2 2 2 2 2 1 1 2 2 2 2 2 3 3 3 3 2 3 5 5 6 8 7 6 6 8 8 8 8 9 9 9 9 9
3 3 4 4 4 4 4 3 3 3 3 3 3 3 2 2 4 3 2 2 2 3 3 3 3 3 4 9 6 5 5 5 10 10 9 9 9 9 10 10 10 10 10
2 3 4 4 4 4 7 8 5 4 3 3 4 3 2 6 6 7 6 6 3 2 3 3 3 4 3 4 4 6 6 11 11 10 11 11 10 11 11 10 10 11 10
2 2 3 3 4 4 8 9 9 4 4 4 3 3 3 3 5 3 7 9 10 12 12 3 3 3 3 4 5 11 12 12 14 12 12 14 13 13 10 9 10 11 11
3 3 2 2 2 3 8 9 10 5 4 4 4 4 3 3 3 4 4 8 11 13 12 11 10 11 13 12 10 12 12 14 14 14 13 14 14 15 13 12 11 11 10
3 3 3 3 2 2 8 9 9 5 4 4 3 3 3 3 6 8 8 12 15 15 14 13 13 14 13 13 12 12 14 14 16 16 15 15 15 15 15 15 13 12 12
2 3 3 3 5 2 7 9 9 3 5 4 4 11 13 8 9 11 6 11 15 16 16 16 16 16 16 15 15 14 14 16 17 18 17 17 16 16 17 15 15 15 15

GFSMA_con_lsi_093.txt.gz
Lid_Strength_Index
1 0 0 1 1 2 2 2 4 4 4 4 4 4 4 3 3 2 2 0 -0 -0 -0 -0 0 1 1 1 1 1 1 1 0 1 0 0 -0 1 1 0 1 1 2
1 1 0 1 1 2 2 3 4 5 4 4 4 4 3 3 3 3 3 2 0 0 -0 0 0 0 1 1 1 1 1 1 1 0 0 0 1 1 1 1 2 2 2
0 1 1 1 1 2 3 4 5 5 4 3 4 4 3 3 3 3 3 3 2 1 0 0 1 1 1 1 1 2 1 1 1 0 0 1 2 1 1 2 2 3 3
-0 -0 1 2 2 3 3 4 5 6 5 4 4 4 4 3 3 4 4 3 3 2 1 1 1 1 1 1 1 2 1 1 0 -0 0 1 1 2 2 2 2 3 3
-0 -0 0 1 2 3 3 4 6 5 5 4 4 4 4 4 4 3 4 4 4 3 3 1 1 1 1 1 1 1 1 0 -1 -1 0 1 1 2 2 2 2 2 3
0 -0 1 2 3 3 4 4 5 6 6 4 4 5 5 5 4 4 4 4 4 4 3 3 2 3 2 1 1 1 0 -1 -1 -1 -0 1 1 1 1 2 2 2 2
1 0 1 2 3 5 4 3 4 5 5 5 5 6 5 5 5 4 4 4 4 4 4 3 3 4 3 1 1 0 -0 -1 -2 -1 -1 -0 -0 0 1 1 1 1 2
0 0 1 3 3 4 4 4 4 5 5 4 5 6 7 6 5 5 5 4 4 4 3 3 3 4 4 3 2 0 -1 -1 -2 -2 -1 -1 -1 -0 0 0 0 1 1
0 1 1 2 3 4 4 4 5 5 6 6 4 6 8 8 7 7 5 5 5 5 4 3 3 3 4 4 3 2 1 0 -2 -2 -2 -2 -2 -1 -1 -1 -0 0 1
0 0 1 2 3 4 3 4 4 4 5 6 6 5 6 6 8 10 7 5 5 4 4 3 3 3 3 3 3 2 3 2 1 -2 -2 -2 -2 -2 -2 -1 -1 -0 0
1 1 1 2 2 4 4 4 4 4 4 5 5 6 6 6 6 8 9 7 5 4 3 3 3 3 3 3 3 2 3 3 2 0 -1 -2 -2 -2 -2 -2 -1 -1 -0
3 2 2 2 3 4 4 5 5 4 4 4 5 5 5 6 6 6 7 7 5 5 4 3 4 3 2 2 2 2 3 4 3 2 1 -0 -1 -1 -2 -2 -2 -2 -1
4 4 3 3 4 4 3 4 4 4 4 4 5 5 4 4 4 5 5 6 6 5 5 5 4 3 2 2 2 3 3 5 5 3 2 2 1 0 -1 -1 -2 -2 -1
4 4 4 3 3 3 3 3 4 4 4 4 5 4 4 4 3 4 4 5 7 6 5 4 3 3 3 2 3 4 2 5 5 5 4 3 2 2 1 1 0 -0 -1
4 4 4 4 3 3 3 3 3 4 4 4 4 4 4 4 4 3 3 3 5 7 6 5 4 3 3 3 4 3 3 4 6 6 6 5 4 3 3 2 2 1 -0
4 4 4 4 4 3 3 2 3 3 3 3 3 3 3 3 3 3 3 3 3 4 5 4 4 3 2 2 2 3 3 4 6 7 7 6 5 4 4 3 3 2 1
4 4 3 3 3 3 3 3 3 2 3 3 3 3 3 2 3 3 2 2 3 3 4 3 3 3 3 2 2 2 2 2 3 6 7 7 7 6 5 5 4 3 3
4 4 4 3 3 3 3 3 3 2 3 3 3 3 3 3 3 2 2 3 3 3 3 4 3 3 4 3 2 2 3 2 2 4 6 7 7 7 7 7 6 5 5
5 4 4 4 3 3 2 3 3 3 3 3 2 3 2 3 3 3 3 3 3 3 3 3 3 3 3 5 4 4 3 4 4 4 7 7 7 7 7 7 7 7 7
4 4 4 4 4 3 3 2 2 3 3 3 3 3 3 3 3 3 3 3 3 3 3 3 3 3 3 4 6 5 6 7 4 4 6 7 7 8 8 8 8 8 8
4 4 4 5 4 4 4 4 3 3 3 3 3 2 2 2 4 3 2 2 2 3 3 3 4 3 3 4 6 3 4 4 5 6 7 9 8 9 8 9 8 9 9
3 3 4 4 5 5 7 9 5 4 3 3 4 3 3 5 5 7 7 6 3 3 3 3 3 4 3 3 2 4 4 5 7 10 10 11 10 10 10 10 10 10 10
3 4 4 4 4 4 9 9 9 4 4 4 4 4 4 3 6 4 7 8 8 8 8 3 3 3 3 2 2 3 4 5 5 11 11 14 13 13 10 10 10 11 11
2 3 3 3 4 4 9 9 10 6 5 5 5 4 5 5 5 5 5 5 6 5 6 7 5 4 3 7 8 6 4 11 14 14 13 15 15 14 13 12 11 12 11
3 2 2 2 3 3 8 10 10 7 6 5 5 5 5 5 6 8 6 6 6 13 13 12 13 13 13 13 11 11 14 13 15 15 16 15 16 15 15 15 14 13 13
4 2 2 3 7 7 14 13 11 5 6 6 6 6 9 7 8 10 6 5 6 13 15 16 16 16 15 15 15 15 14 14 16 18 18 17 17 17 17 16 16 16 16

GFSMA_con_lsi_096.txt.gz
Lid_Strength_Index
0 1 1 0 -0 -0 0 3 3 3 3 3 3 3 3 3 2 2 2 0 -0 -1 -0 -1 -1 -0 0 0 1 1 1 1 1 1 0 -0 1 -0 -0 0 1 0 1
0 0 1 1 1 0 1 3 4 3 3 3 3 3 3 3 3 3 2 1 1 -0 -1 -1 -0 -0 0 1 1 1 1 1 1 1 1 0 1 0 0 1 1 1 2
0 0 1 1 1 1 2 3 4 4 4 4 4 3 4 4 4 3 3 2 1 1 0 -0 -0 0 0 1 1 2 1 2 2 2 2 1 1 0 1 1 2 2 2
0 -0 1 1 2 2 3 4 4 4 4 4 5 4 4 4 3 3 3 3 3 2 1 0 0 0 1 1 1 1 2 2 2 2 2 1 0 0 1 1 2 2 2
-0 0 0 1 2 3 4 4 6 5 5 5 5 4 4 4 3 3 3 3 3 3 2 1 1 1 1 1 1 1 1 2 2 2 2 1 1 1 1 1 1 2 2
-0 0 0 1 2 3 4 4 5 5 4 5 4 5 4 4 4 4 4 3 3 3 3 2 2 2 1 1 1 1 1 1 1 1 1 0 0 1 1 2 2 1 2
0 -0 1 2 2 2 3 4 5 5 5 4 5 5 5 5 4 4 4 4 4 4 3 3 3 3 2 1 1 1 1 1 1 1 1 -0 -0 0 1 1 1 1 1
0 0 1 2 2 4 4 5 5 4 4 4 5 6 7 6 5 5 5 4 4 4 3 3 3 3 3 2 2 0 0 0 0 0 -0 -1 -1 -0 -0 1 0 1 1
1 0 1 2 3 3 4 4 5 4 5 4 3 5 7 8 7 6 5 5 5 4 4 4 3 3 3 3 2 2 2 2 -0 -1 -2 -2 -2 -2 -1 -1 -0 0 0
1 0 1 2 2 3 4 3 3 4 4 5 4 5 5 6 8 9 6 5 5 4 5 4 4 4 3 3 3 3 4 4 2 -0 -2 -2 -2 -2 -2 -2 -1 -1 -1
1 0 1 1 2 4 3 3 4 4 4 4 4 6 6 6 6 8 8 7 5 4 4 4 4 3 3 2 3 3 4 4 4 1 -1 -2 -2 -2 -2 -2 -2 -2 -2
1 0 0 1 2 4 4 4 3 4 4 4 4 5 5 6 6 7 7 7 6 5 4 3 3 3 2 2 2 3 4 4 4 2 1 -0 -1 -2 -2 -2 -2 -2 -2
2 2 1 2 2 3 3 3 4 4 4 4 4 5 4 5 4 5 6 7 6 5 5 3 3 2 2 2 2 4 4 5 5 4 2 1 1 0 -0 -1 -2 -2 -2
3 2 2 3 3 3 3 3 4 4 4 4 4 5 5 4 4 4 5 6 7 6 5 4 3 3 2 2 2 4 2 5 5 5 4 3 2 2 1 1 0 -0 -1
3 3 2 3 4 3 3 3 4 4 4 4 4 4 4 4 3 3 4 4 6 7 7 5 4 3 3 2 3 2 2 3 5 6 5 5 4 3 3 2 2 1 0
3 3 3 3 3 3 2 3 3 3 4 4 4 4 4 3 3 3 3 3 4 5 6 4 4 3 2 2 3 3 3 4 6 6 7 6 5 4 4 4 3 3 2
4 3 3 3 3 3 2 2 2 2 3 3 3 3 3 3 3 3 4 3 3 3 5 4 3 3 3 2 2 2 2 2 2 6 6 7 7 6 6 6 5 5 4
4 4 4 4 4 3 3 2 2 2 2 3 3 3 3 3 3 3 3 3 3 2 3 4 3 3 3 2 2 2 2 2 2 3 5 6 7 7 7 7 7 6 6
4 4 4 4 4 3 3 3 3 3 3 3 2 3 3 3 3 3 3 3 3 2 2 3 3 3 3 3 3 3 3 2 3 4 6 6 7 7 7 7 7 7 6
5 5 4 4 4 4 3 3 3 3 3 2 3 3 3 3 3 3 3 3 3 3 3 3 3 3 3 3 4 4 4 5 4 3 5 5 6 7 7 7 7 7 7
4 4 4 4 4 4 3 3 3 3 3 3 3 2 2 3 5 4 2 2 2 3 3 3 3 3 3 3 4 3 4 3 3 3 3 4 5 6 6 8 7 8 8
5 5 5 5 5 4 7 8 5 4 4 4 4 3 3 5 5 7 7 6 4 3 3 3 3 4 3 3 2 3 3 4 5 5 4 4 7 7 7 7 9 9 9
5 5 6 6 6 5 9 9 9 4 4 4 4 4 4 3 6 3 7 9 8 8 7 3 4 4 4 3 2 3 3 4 4 3 8 8 11 11 10 10 10 11 11
3 3 4 4 4 4 9 10 10 7 5 5 4 4 4 4 4 5 5 5 6 5 6 6 4 3 3 4 5 5 5 7 13 13 12 13 14 14 13 12 10 10 11
4 2 2 3 3 5 14 12 11 6 6 5 5 5 5 5 7 9 6 6 6 7 13 12 13 14 14 14 13 10 10 11 14 16 16 14 15 15 14 15 14 13 14
9 8 12 14 14 14 14 14 13 8 6 6 6 6 13 14 13 12 8 7 8 8 15 16 16 16 16 16 16 16 14 11 16 18 17 17 17 16 18 16 17 17 16

GFSMA_con_lsi_099.txt.gz
Lid_Strength_Index
-0 -1 -1 -1 -0 -1 0 1 1 0 -0 -0 -1 -0 -0 -1 -2 -1 -2 -1 -1 -1 -1 -1 -1 -1 -0 -0 0 0 1 1 1 1 1 1 1 0 -0 0 -0 0 1
0 -0 -0 0 -0 -0 1 2 2 1 1 -0 -0 -0 -0 -0 -1 -1 -1 -1 -0 -0 -1 -1 -1 -0 -0 -0 1 1 1 1 1 1 1 1 1 1 0 1 0 0 1
-1 -0 0 0 0 -0 1 2 2 2 1 1 1 0 0 0 0 0 0 0 0 1 -0 -1 -1 -0 -0 0 1 1 1 1 1 1 1 2 2 1 1 1 0 1 2
-1 -0 0 0 0 1 2 3 3 3 2 1 1 1 1 1 1 1 1 1 1 1 1 -0 -0 -0 -0 0 1 1 1 1 2 2 2 2 2 2 1 1 1 1 2
-1 -1 -0 0 1 2 3 3 3 3 3 2 2 1 1 1 1 1 1 1 0 0 0 1 1 0 0 0 1 1 1 1 2 2 2 2 2 2 1 1 1 1 2
-1 -1 -0 0 1 3 4 4 4 3 3 2 2 2 2 1 1 1 1 1 0 0 1 0 1 2 1 0 0 1 0 1 1 2 2 2 2 2 1 0 1 1 2
-0 -0 0 1 0 2 3 4 4 4 3 2 3 4 3 2 1 1 1 1 1 1 1 1 1 1 1 1 1 1 0 0 1 1 2 2 2 2 1 0 1 0 1
-0 0 0 1 1 1 3 4 4 4 3 3 4 4 6 5 3 2 2 2 1 1 2 2 1 1 1 1 1 0 0 -0 0 1 1 1 1 0 0 0 0 0 1
1 -0 1 1 2 2 3 3 3 3 3 2 2 3 6 6 5 3 3 2 2 2 1 1 1 1 1 1 1 1 1 1 -0 -1 -0 -0 -0 -0 -1 -1 -0 0 0
-0 1 -0 1 2 2 3 4 3 2 3 2 2 3 1 2 5 6 3 3 2 3 2 2 2 1 1 2 2 3 3 3 2 0 -1 -1 -1 -1 -1 -2 -2 -2 -1
-0 -0 0 2 2 3 2 3 4 2 2 2 3 4 4 3 2 4 6 5 4 3 2 2 2 2 1 2 1 2 4 4 4 2 0 -1 -2 -2 -2 -2 -2 -2 -2
0 -0 -0 -0 1 2 2 3 3 3 3 3 2 4 4 4 5 5 5 5 4 3 3 2 2 2 1 1 2 3 4 5 4 3 2 1 -0 -1 -2 -2 -2 -2 -2
1 0 0 0 1 1 1 2 3 4 3 3 3 4 4 3 3 3 4 4 4 3 3 2 1 2 1 1 1 3 4 5 5 4 3 2 1 0 -0 -1 -2 -2 -2
2 0 0 1 2 2 2 3 3 4 3 3 3 4 4 3 2 2 4 5 6 4 3 3 2 1 0 0 1 4 1 6 6 5 4 3 3 2 2 1 0 -0 -1
2 1 1 2 2 2 2 3 4 4 3 3 4 4 3 3 3 2 2 2 4 6 5 3 3 2 1 0 1 -0 1 3 5 6 5 5 4 3 3 2 2 1 1
2 2 2 2 3 2 2 3 3 3 4 4 4 3 3 3 2 2 2 2 4 4 5 4 2 1 2 1 1 1 0 3 5 6 6 6 5 4 4 4 3 3 2
2 2 2 2 2 2 2 2 3 2 3 3 2 2 3 3 3 2 1 1 2 2 3 2 1 0 2 2 2 1 2 2 2 6 6 6 6 6 6 5 5 5 4
2 1 2 2 2 2 1 1 2 2 2 3 3 3 3 2 2 2 2 2 2 1 2 3 1 1 1 1 -0 1 2 1 1 3 6 7 7 7 7 7 7 6 6
1 1 1 2 3 2 2 2 2 1 2 2 2 3 3 3 3 3 2 2 2 2 1 2 2 1 1 1 1 2 2 2 2 3 5 6 6 6 7 7 7 7 7
1 1 1 1 1 2 2 2 2 2 1 1 0 0 1 2 3 3 2 3 2 2 2 2 2 2 1 0 0 1 1 0 1 1 3 4 5 5 6 7 7 7 7
1 1 1 1 1 1 1 1 2 3 3 2 0 0 0 1 4 3 2 2 2 2 2 2 3 2 2 2 2 1 2 1 1 0 1 -0 -1 -0 1 6 6 7 7
2 2 2 2 1 2 7 8 4 1 2 2 1 1 1 4 4 7 7 6 3 2 2 2 3 3 3 2 1 2 2 3 4 -1 1 1 -1 0 0 1 8 8 8
3 3 3 3 3 3 9 9 9 2 2 2 2 2 2 2 5 2 7 9 9 8 8 2 2 3 3 2 1 2 2 2 3 1 2 2 8 9 10 9 10 10 10
3 4 3 4 3 8 13 11 11 5 4 4 4 3 3 2 2 3 3 3 3 4 6 6 5 3 4 10 9 6 5 4 6 12 11 9 13 15 14 13 12 11 11
9 12 12 10 9 13 14 13 12 7 6 5 5 5 9 7 10 12 7 6 6 7 14 13 15 15 15 15 15 11 10 9 9 15 16 14 15 16 17 17 15 14 14
12 13 14 15 15 14 14 13 13 9 8 8 14 14 15 14 14 13 11 10 9 10 15 16 17 17 17 17 17 17 16 14 13 16 18 17 17 16 19 18 17 17 17

GFSMA_con_lsi_102.txt.gz
Lid_Strength_Index
-0 -0 -1 -1 -1 -2 -1 -0 -0 -0 -1 -1 -1 -1 -1 -2 -2 -1 -1 -1 -1 -2 -2 -2 -1 -1 -1 -1 -0 0 1 0 0 0 0 1 1 1 1 0 -0 -0 -0
-0 -0 -0 -1 -1 -2 -1 -0 -0 -0 -0 -1 -1 -1 -1 -2 -2 -2 -1 -2 -1 -2 -2 -1 -1 -1 -1 -0 -0 0 1 1 1 1 1 1 1 1 1 1 1 0 0
-1 -0 -0 -0 -1 -1 0 0 1 1 0 -1 -0 -1 -1 -1 -1 -1 -2 -1 -1 -0 -0 -1 -1 -1 -1 -0 0 0 1 1 1 1 1 1 1 2 2 2 1 1 1
-1 -1 -0 -0 -1 -0 0 1 1 1 1 0 0 -0 -1 -1 -1 -1 -0 -1 -1 -0 0 -0 -0 -1 -1 -0 0 1 1 1 1 1 1 2 2 2 2 2 2 2 1
-1 -1 -0 -0 -1 1 1 1 2 2 2 1 0 0 -0 -0 -0 0 1 0 0 -0 -0 1 1 0 0 -0 0 0 0 1 1 1 1 2 2 2 2 2 2 1 1
-1 -1 -1 0 1 2 3 2 3 2 2 1 1 1 0 0 0 0 1 1 0 0 0 -0 0 1 1 1 0 0 0 1 1 1 1 2 2 2 3 2 2 1 1
-1 -0 -0 0 1 2 3 3 3 3 3 2 2 2 1 1 1 1 1 1 1 1 1 0 1 0 1 1 0 1 0 0 0 1 1 2 2 2 2 3 2 1 0
-1 -0 -0 0 1 1 2 3 3 4 3 2 3 3 5 4 2 2 1 1 1 1 1 0 0 1 1 1 1 0 0 0 0 1 1 1 1 1 2 2 2 1 0
-1 -0 -0 0 1 2 2 2 2 2 3 3 2 3 6 6 5 2 2 1 1 1 1 1 0 1 1 1 1 1 2 2 0 -0 -1 -0 0 1 1 2 2 2 0
-0 -0 -0 -0 1 2 3 1 1 2 2 3 2 1 1 2 5 5 3 2 1 2 1 1 1 1 1 1 1 3 4 4 3 1 -1 -1 -1 -1 -0 0 0 -0 -0
-0 -0 0 -0 0 1 2 2 1 1 2 2 2 2 1 1 1 3 5 3 2 1 1 1 2 1 1 1 1 2 5 5 4 2 0 -1 -2 -1 -1 -1 -1 -1 -1
0 -0 -0 0 1 1 1 2 2 1 1 1 1 1 2 3 3 3 4 3 3 2 2 2 1 1 1 1 1 4 5 5 5 3 2 1 -0 -1 -1 -2 -2 -2 -2
1 0 -0 0 1 1 1 2 3 3 2 2 1 1 2 2 3 3 3 3 3 2 2 1 1 1 1 0 1 4 4 6 6 4 3 2 2 1 0 -1 -2 -2 -2
0 -0 0 0 -0 0 1 2 3 3 2 2 2 3 3 1 2 3 4 5 5 4 3 2 1 1 0 0 0 4 1 6 6 6 5 4 3 2 2 1 0 -0 -1
0 0 0 1 1 1 0 1 1 2 3 3 2 2 3 3 3 2 3 4 5 6 6 3 2 0 -0 -0 1 -1 -0 3 6 6 6 5 4 3 3 2 2 2 1
0 0 1 0 1 1 2 1 2 3 3 3 3 3 3 3 3 3 3 3 3 4 6 3 2 1 0 0 1 -1 -1 3 5 6 7 6 5 4 4 4 3 3 2
0 0 1 0 2 2 2 2 3 3 3 3 4 4 4 4 4 3 3 3 3 3 5 4 3 1 0 -0 0 -0 0 0 -0 6 6 7 6 6 6 5 5 5 4
0 0 1 0 1 1 1 1 2 2 3 3 3 3 3 3 3 2 2 2 2 1 2 3 3 2 0 -1 -1 -1 -0 1 1 4 6 7 7 7 7 7 7 6 6
0 0 0 1 1 1 0 0 1 1 1 1 1 2 1 1 2 2 2 2 2 1 1 2 2 1 0 0 0 -0 -0 -1 0 3 6 6 6 6 6 7 7 7 7
1 1 0 0 0 0 1 0 0 1 0 0 0 1 1 2 2 2 2 2 2 3 2 2 2 2 1 0 0 1 1 0 0 -1 1 3 3 4 6 6 6 6 7
0 0 1 1 0 1 1 0 1 1 1 1 1 1 0 1 4 2 1 1 2 2 3 2 3 3 2 2 2 1 2 1 0 -0 0 -0 -0 -1 -1 5 4 6 6
1 1 1 1 1 1 6 7 3 1 1 1 1 1 1 4 4 7 7 7 3 2 2 3 3 3 2 2 1 1 2 2 3 -0 1 1 -1 0 4 7 9 9 8
1 1 1 1 2 3 13 11 9 1 1 1 1 1 2 1 3 0 7 10 9 9 9 2 2 2 2 1 2 2 2 2 3 2 5 2 6 14 13 12 11 11 11
7 6 6 3 9 12 14 13 13 7 4 3 2 4 5 4 6 7 3 3 4 4 6 6 5 6 11 13 12 10 9 9 8 14 13 13 15 17 16 15 13 13 13
12 13 13 12 13 14 14 14 12 7 6 5 12 14 13 11 14 13 9 7 7 13 14 15 15 16 16 16 16 12 11 11 11 15 16 14 15 17 17 17 16 15 15
14 14 15 15 16 16 15 14 11 8 8 14 15 16 15 15 15 15 11 11 11 13 16 17 18 18 18 18 18 18 17 15 14 16 18 17 17 16 19 17 16 15 16

GFSMA_con_lsi_105.txt.gz
Lid_Strength_Index
-0 -1 -1 -1 -1 -2 -1 -1 -1 -0 0 0 -1 -1 -1 -1 -1 -1 -1 -1 -1 -2 -2 -2 -2 -2 -2 -1 -1 -1 -0 -0 0 0 0 -0 0 0 0 0 1 0 0
-1 -0 -0 -0 -0 -1 -1 -1 -0 -0 0 0 -0 -1 -0 -1 -1 -1 -1 -1 -0 -1 -2 -2 -2 -2 -1 -1 -0 0 0 1 1 1 1 1 1 1 1 1 2 2 1
-1 -0 -0 -0 -0 -2 -1 -1 -0 -0 0 -0 0 -0 -0 -1 -1 -1 -1 -1 -1 -0 -1 -2 -2 -2 -1 -1 -0 0 0 0 1 1 1 1 1 2 2 2 2 2 2
-1 -1 -0 -0 -1 -1 -1 -0 0 1 1 1 1 0 -0 -1 -1 -1 -1 -1 -1 -1 -1 -1 -2 -1 -1 -0 -0 0 0 1 0 1 1 1 1 1 2 2 2 3 3
-1 -0 -0 -0 -1 -0 0 0 1 1 1 1 1 0 0 -0 -0 1 -1 -1 -1 -0 -0 -0 0 -0 -0 -1 -0 0 0 0 1 1 1 1 1 2 2 2 2 3 3
-1 -1 -0 -0 -1 0 0 1 1 1 1 1 1 1 0 -0 0 0 0 -0 -0 0 -0 -0 0 1 1 0 -0 0 0 0 0 1 1 1 1 2 2 2 2 3 3
-1 -0 -0 -0 0 1 1 1 2 2 2 1 2 2 1 1 1 1 0 1 1 0 0 -0 -0 1 1 1 0 0 -0 0 0 0 1 1 1 1 2 2 2 3 3
-1 -0 -0 0 0 1 2 2 3 3 3 1 3 3 5 4 2 2 1 1 -0 1 1 0 1 0 0 1 1 0 0 0 0 0 1 1 1 1 1 2 2 2 2
-0 -0 -0 -0 0 1 2 2 3 3 3 3 2 3 6 6 4 2 1 1 1 1 1 1 0 1 0 0 1 1 2 2 0 -0 -0 0 1 1 1 2 1 1 1
-0 -0 -0 0 1 1 2 1 2 2 3 4 3 2 3 3 5 5 3 2 2 1 0 0 1 1 1 1 1 3 4 4 3 1 -0 -0 0 0 0 1 0 0 1
-0 -0 -0 -0 0 2 2 2 1 1 2 3 3 3 2 2 2 4 5 4 2 2 1 1 1 0 1 1 1 2 5 5 4 2 1 0 -0 -1 -0 -0 -1 -0 -0
0 -0 -0 0 0 1 1 1 1 1 1 1 2 2 3 3 3 4 4 3 3 2 1 1 1 0 0 0 1 4 5 6 5 4 3 1 0 -1 -1 -1 -1 -1 -1
1 0 0 0 0 1 1 1 1 2 1 2 1 1 1 1 1 2 2 3 4 3 2 1 1 0 1 0 1 4 5 7 6 5 4 2 1 1 0 -0 -1 -2 -2
1 -0 0 0 0 0 1 1 2 2 2 2 2 1 2 1 2 2 3 4 6 5 3 3 1 0 0 0 1 5 1 6 6 6 5 4 3 3 2 2 1 0 -1
1 0 -0 0 0 0 0 2 2 3 2 2 2 1 3 2 3 2 2 3 5 7 7 3 2 0 0 -0 1 0 0 3 6 7 6 5 4 3 3 2 2 2 1
0 0 0 0 0 0 0 1 2 2 2 2 3 3 2 2 3 3 3 3 4 5 7 4 4 2 0 0 0 -1 -1 3 6 7 7 6 6 5 4 4 4 3 2
1 0 0 1 1 2 1 1 1 1 2 3 3 3 3 3 3 3 3 3 4 4 6 4 3 3 1 1 1 -1 -1 -1 -1 6 7 7 7 6 6 5 5 4 4
0 0 0 1 1 1 1 2 2 3 3 3 3 3 3 3 3 3 4 4 4 4 4 5 3 3 2 0 1 0 -0 -1 -1 3 6 6 6 7 7 7 6 6 6
1 0 0 1 1 1 1 1 2 2 2 2 1 2 2 3 3 3 2 2 2 2 1 3 3 1 1 0 0 0 0 0 -1 2 6 7 7 6 6 6 6 6 6
1 2 1 1 1 1 1 1 1 1 1 1 0 0 1 1 1 1 1 1 1 1 2 2 2 2 1 0 1 2 2 0 1 -0 2 3 4 5 6 6 6 6 6
1 1 1 1 1 1 1 1 1 1 1 1 1 1 0 1 4 3 1 1 1 2 2 2 3 3 3 2 2 1 2 1 1 -0 0 -0 -0 -1 7 9 9 9 9
1 1 1 1 1 1 12 9 4 1 1 1 1 1 0 4 4 8 7 7 4 1 2 3 3 3 3 2 1 2 2 3 4 -0 4 1 6 12 12 11 11 11 11
2 2 1 1 5 9 12 12 11 1 1 1 1 2 1 1 5 2 7 10 9 9 10 3 3 3 3 5 8 6 5 6 6 9 8 8 13 16 15 14 13 13 13
10 9 9 8 10 12 13 13 13 4 4 5 10 10 9 9 13 11 7 6 8 12 12 9 10 13 14 15 13 11 10 10 9 14 13 13 15 17 16 15 14 14 14
14 14 13 13 13 14 14 14 12 7 7 13 14 14 13 14 15 13 9 8 14 16 15 15 16 16 16 16 16 13 14 14 13 15 17 15 16 17 17 17 16 15 15
15 15 16 16 16 16 15 14 11 8 14 16 16 16 16 16 16 15 12 11 12 16 16 17 18 18 18 18 18 18 17 15 15 15 18 17 16 16 18 16 15 13 13

GFSMA_con_lsi_108.txt.gz
Lid_Strength_Index
0 0 0 0 0 -0 0 0 0 0 -0 -0 -0 -0 -0 -0 -0 0 -1 -0 -1 -2 -2 -2 -2 -2 -2 -2 -2 -1 -1 0 1 0 0 -0 0 -1 -0 0 1 1 1
0 0 0 0 0 -0 0 0 0 0 0 -0 0 0 -0 -0 -0 -0 -0 -0 -0 -1 -2 -2 -2 -2 -2 -2 -2 -1 -0 0 0 0 1 0 1 0 0 1 1 2 2
-0 0 0 0 0 -0 0 0 0 -0 0 -0 1 1 -0 0 -0 -0 -0 -0 -0 -0 -1 -2 -2 -2 -2 -2 -1 -0 0 -0 0 0 1 1 1 1 1 1 2 2 2
-0 0 0 0 0 0 0 0 0 1 1 1 1 1 0 0 0 0 -0 -0 -0 0 -0 -1 -1 -2 -2 -2 -0 -0 0 0 0 1 1 1 1 1 1 2 2 2 2
-0 0 0 0 0 0 0 0 1 1 1 1 1 1 0 1 1 -0 0 -0 0 0 -0 -0 -1 -1 -1 -1 -1 -0 0 0 0 1 1 1 1 1 1 2 2 2 3
-0 0 0 0 0 0 1 1 1 1 1 1 1 1 1 2 2 1 0 -0 0 0 -0 -0 -0 1 1 -1 -1 -0 0 0 0 1 1 1 1 1 1 2 2 2 3
-0 0 0 0 0 1 1 1 1 1 2 1 2 2 2 2 2 1 0 0 1 1 0 0 1 1 1 0 -0 -0 0 -0 0 0 1 1 1 1 1 1 2 2 2
0 0 0 1 1 1 1 1 1 2 2 1 3 4 6 5 3 2 3 2 1 2 1 1 1 1 2 2 2 -0 0 -0 -0 0 0 0 1 1 1 2 2 2 2
0 0 0 1 1 2 1 1 1 2 3 2 2 4 6 7 5 3 3 3 2 2 2 2 1 1 1 2 2 2 2 2 -0 -1 -0 0 1 1 1 2 2 2 2
0 0 0 1 2 2 1 1 1 1 2 4 3 2 3 4 6 7 4 4 3 2 3 2 2 2 2 1 2 3 4 4 3 1 -0 -0 0 0 1 1 1 1 1
0 0 0 1 1 2 1 1 2 2 2 3 3 4 4 4 4 5 6 5 3 3 3 2 3 2 2 2 2 3 4 5 5 2 1 0 -0 -0 0 0 0 0 -0
1 0 0 0 1 1 1 2 2 1 1 2 3 3 4 5 5 5 6 5 5 4 3 3 3 2 2 2 2 4 5 6 5 4 2 1 1 -0 -1 -1 -1 -1 -1
2 1 1 1 1 1 1 1 1 1 1 2 2 2 2 3 3 3 5 5 5 4 4 3 2 3 2 2 2 4 5 7 6 5 4 3 2 1 0 -1 -1 -1 -1
1 1 1 0 1 1 1 1 2 1 2 1 2 3 2 2 2 2 3 4 5 5 4 4 2 2 2 2 3 5 4 7 7 6 5 4 3 3 2 1 0 -0 -1
1 1 1 1 1 0 0 1 2 1 1 2 2 2 2 2 3 3 3 3 5 7 6 4 4 2 2 2 2 2 3 5 7 7 7 6 4 4 3 3 2 1 1
1 1 1 1 1 1 1 1 2 2 2 2 2 2 2 2 3 3 3 4 4 5 7 4 4 3 2 1 2 2 2 4 6 7 7 7 6 5 4 4 3 3 2
1 1 1 1 1 1 1 2 2 2 3 2 2 3 3 3 3 3 3 3 4 4 6 5 4 4 4 2 1 1 1 0 1 6 7 7 6 6 5 5 5 4 4
1 1 1 1 1 1 1 1 2 2 2 2 2 2 3 3 3 3 3 4 4 4 5 5 4 4 4 3 1 1 1 1 -0 3 6 6 6 7 6 6 6 6 6
1 1 1 1 1 1 1 2 2 2 2 2 2 3 2 3 3 3 3 3 4 3 4 4 4 3 3 2 2 1 2 1 0 2 5 6 6 6 6 6 6 6 6
1 1 1 1 1 1 1 1 2 2 2 2 2 2 2 2 2 3 2 3 3 3 3 3 3 3 3 2 1 2 2 2 1 -0 2 3 5 6 8 8 9 9 9
1 1 1 1 1 1 3 1 1 1 2 1 1 1 1 2 4 3 1 1 2 2 2 3 3 3 3 3 3 2 2 2 1 1 1 2 7 9 10 11 11 10 10
2 1 1 1 2 8 12 11 5 2 2 1 2 1 1 5 5 7 7 7 3 2 3 3 4 4 4 3 3 3 3 4 6 8 6 7 11 13 13 13 12 12 12
2 3 3 8 10 11 13 12 12 2 3 4 5 5 3 6 7 4 9 10 10 12 13 6 5 5 6 9 8 7 7 7 7 10 9 9 14 16 15 14 13 13 13
11 10 10 11 13 14 14 12 12 4 8 11 11 10 9 11 13 11 7 11 14 14 13 12 13 15 16 15 13 11 11 11 11 15 14 14 15 16 16 15 14 13 14
15 15 15 15 15 15 14 12 9 9 12 14 14 14 14 15 15 13 9 13 16 16 15 15 15 16 16 15 15 12 15 14 14 16 18 16 16 17 17 17 15 14 15
15 16 16 16 16 16 15 13 11 12 15 16 16 16 16 16 15 14 12 13 16 17 17 17 18 17 17 17 17 17 17 15 15 17 17 17 16 16 17 15 14 13 13

GFSMA_con_lsi_111.txt.gz
Lid_Strength_Index
2 1 1 1 1 1 0 1 1 1 2 1 0 -0 -0 -0 -0 -0 -0 0 -0 -1 -2 -2 -2 -2 -2 -2 -2 -2 -2 -1 -0 0 0 -0 -0 -0 -0 -0 0 1 1
1 1 2 1 2 1 1 1 1 1 2 1 0 -0 -0 -1 -0 0 -0 -0 0 -1 -1 -2 -2 -2 -2 -2 -2 -2 -2 -1 0 0 0 -0 0 0 0 0 1 1 2
1 1 2 2 1 1 1 1 1 2 2 1 0 0 -0 -0 -0 0 -0 0 -0 0 -1 -2 -2 -2 -2 -2 -2 -2 -1 -0 0 0 0 0 1 1 1 1 2 2 2
1 2 2 2 2 1 1 1 1 1 1 1 1 1 0 -0 -0 0 0 -0 0 -0 -0 -1 -1 -2 -2 -2 -2 -2 -0 0 -0 0 0 0 1 1 1 1 2 2 2
1 1 1 1 1 1 2 2 2 1 2 1 1 1 1 0 0 0 1 0 1 0 0 -0 -0 -1 -1 -2 -2 -1 -1 0 0 0 1 1 1 1 1 1 2 2 2
1 1 1 2 1 1 1 1 1 1 1 1 1 1 1 1 1 1 1 0 1 0 0 0 -0 -0 -0 -1 -2 -1 -1 -0 -0 0 1 1 1 1 1 2 1 2 2
1 1 1 1 1 1 1 1 1 1 2 1 2 2 1 2 2 1 1 1 1 1 1 0 0 -0 -0 -1 -1 -1 -0 -1 0 -0 1 1 0 1 1 1 2 2 2
1 1 2 2 1 1 2 1 2 2 2 1 3 3 5 4 3 2 2 2 1 1 1 1 0 0 1 1 1 -0 -1 -0 -0 0 0 0 1 1 1 1 1 2 2
1 1 2 2 2 2 2 1 2 2 3 2 1 3 6 7 5 3 3 2 3 2 2 1 1 1 2 2 1 1 2 2 -0 -1 -0 -0 -0 0 1 1 1 2 1
1 2 2 3 3 3 2 2 1 1 2 3 2 3 3 4 6 7 4 4 3 3 2 2 2 2 2 2 2 3 4 4 2 -0 -0 -0 -0 0 0 1 1 1 1
2 1 2 3 3 3 2 2 2 1 1 2 3 4 4 4 4 5 6 5 4 3 3 3 2 2 2 2 2 3 4 5 5 2 1 -0 -0 -0 0 0 0 1 0
1 1 2 2 2 2 2 2 1 1 1 2 2 3 4 5 6 5 6 5 5 5 4 3 3 2 2 3 2 3 5 6 5 4 2 1 0 -0 -1 -0 -1 -1 -1
2 2 2 2 2 2 2 2 2 2 2 2 2 3 3 4 4 5 6 5 5 4 5 4 3 3 2 3 2 4 5 6 6 5 4 2 2 1 0 -1 -1 -1 -1
2 2 1 2 2 2 1 2 1 1 2 2 2 2 3 3 3 4 5 5 7 6 5 5 3 3 3 2 3 5 4 7 7 6 5 4 4 3 2 1 0 -0 -1
2 2 1 2 1 2 1 1 1 2 2 2 2 2 2 2 2 2 3 3 6 8 6 4 4 2 2 2 3 3 3 6 7 7 7 6 5 4 4 3 2 2 1
2 2 1 2 2 1 1 1 2 1 1 2 2 2 3 3 3 3 4 4 4 5 6 4 3 3 2 2 3 2 3 5 8 8 8 7 6 5 5 4 4 3 2
3 2 2 2 2 1 1 1 1 1 2 2 2 2 2 2 3 3 3 4 4 5 6 5 4 3 4 3 2 2 2 2 2 7 8 7 7 6 6 5 5 4 4
3 3 2 2 1 1 1 2 2 2 2 3 2 2 2 3 3 3 3 3 3 3 4 5 5 4 4 4 3 2 1 0 1 3 6 6 6 6 7 6 6 6 6
3 3 2 1 1 1 2 2 2 2 2 2 2 3 2 2 3 3 3 3 3 3 4 4 5 4 3 4 4 3 2 1 1 3 5 6 6 6 7 7 7 7 7
2 2 1 1 1 1 2 2 1 2 2 2 1 2 2 2 2 2 2 3 3 3 4 4 4 4 4 3 2 3 3 2 2 0 2 7 8 9 9 9 9 9 9
2 1 1 1 1 1 3 2 2 2 3 2 2 2 3 3 5 4 2 2 2 3 3 4 4 3 3 4 4 3 3 3 2 3 3 7 9 10 11 11 11 11 11
3 2 2 2 7 8 12 11 4 2 3 2 3 2 1 5 5 7 7 6 3 2 3 3 3 4 3 3 3 3 3 4 5 9 6 10 11 14 13 13 12 12 12
4 5 7 8 10 11 13 12 11 2 2 4 5 3 3 6 6 3 8 11 12 12 12 5 4 5 5 10 8 6 6 6 7 12 10 12 14 16 15 14 13 13 13
12 12 12 12 13 13 13 13 11 8 10 11 11 10 9 10 12 8 8 11 13 14 14 13 13 15 15 15 13 11 10 11 14 15 15 14 15 17 16 15 13 14 14
15 15 15 15 15 15 13 12 11 13 15 16 14 14 13 13 14 11 11 14 16 17 15 15 15 15 15 15 14 12 14 14 15 16 16 14 16 17 16 16 14 14 14
16 16 16 16 16 16 14 14 14 15 16 17 16 15 15 14 14 13 12 15 17 18 18 18 18 17 17 16 17 17 16 15 15 18 17 15 15 17 19 16 16 17 17

GFSMA_con_lsi_114.txt.gz
Lid_Strength_Index
2 2 2 1 1 1 1 1 2 2 2 2 1 0 0 -0 -0 0 -0 0 -0 -1 -2 -2 -2 -2 -2 -2 -2 -2 -2 -2 -1 -0 -0 -1 -1 -1 -0 0 -1 -0 -1
2 2 2 2 2 1 1 1 2 2 2 2 2 1 0 -0 -0 -0 -1 -0 0 -0 -1 -2 -2 -2 -2 -2 -2 -2 -2 -2 -1 -0 -0 -0 -1 -0 0 1 1 0 1
2 2 2 2 2 1 2 2 2 3 3 2 2 1 0 0 -0 -0 -1 -0 -0 1 -0 -1 -2 -2 -2 -2 -2 -2 -2 -2 -1 -0 -0 -0 -0 0 1 1 1 1 1
1 2 2 2 2 2 2 2 2 2 2 1 2 2 1 -0 -0 -0 -0 -0 -0 -0 0 -0 -1 -2 -2 -2 -2 -2 -2 -1 -0 -0 -0 0 0 0 1 1 1 2 2
1 2 2 2 2 2 2 2 2 1 2 2 2 2 0 0 0 -0 0 0 0 1 0 -0 -0 -0 -1 -2 -2 -2 -2 -1 -0 -0 -0 0 0 0 1 1 1 2 2
1 2 2 2 1 1 2 2 2 1 1 2 2 1 1 1 0 0 0 0 1 1 1 0 -0 -0 0 -1 -2 -2 -2 -2 -1 -1 -0 0 1 0 1 1 1 2 2
1 1 2 2 2 1 1 1 1 2 2 1 2 2 2 1 1 1 1 1 2 1 1 0 0 0 -0 -1 -1 -2 -2 -1 -0 -0 0 0 0 0 1 1 1 1 2
1 1 2 2 2 2 2 1 1 2 2 1 3 3 5 3 2 1 1 2 2 1 1 0 0 0 0 -0 -0 -1 -2 -1 -0 0 -0 0 0 0 0 1 1 1 1
1 1 2 2 2 2 2 2 1 2 3 2 1 3 6 7 4 2 2 2 2 2 1 1 1 1 0 -0 -0 1 2 1 -0 -1 -0 -0 0 0 0 1 1 1 1
1 1 2 2 2 2 2 2 1 2 2 3 2 1 2 3 5 6 3 3 3 3 3 2 1 1 1 1 1 2 3 4 2 -0 -0 -0 -0 -0 0 0 1 1 1
2 1 2 3 3 4 3 2 2 2 2 2 2 2 3 3 4 5 6 5 4 3 2 2 2 2 2 2 2 2 4 5 4 2 -0 -1 -0 -0 -0 -0 -0 0 0
3 2 2 3 4 4 4 3 2 2 2 1 1 2 3 4 5 5 5 5 5 4 3 3 3 2 2 2 2 4 5 6 5 4 2 1 -0 -0 -1 -1 -0 -0 -0
3 3 2 3 4 3 3 3 2 2 1 1 2 2 2 3 4 5 5 5 5 5 4 4 3 2 2 3 2 4 5 7 6 5 4 3 1 0 -0 -0 -1 -1 -1
3 3 2 2 3 3 2 2 3 2 1 1 2 2 3 3 3 4 5 5 7 6 5 5 3 3 3 2 3 5 3 7 7 6 5 4 4 3 2 1 0 -0 -1
3 2 1 3 4 3 2 3 3 2 2 1 2 2 2 2 3 3 4 4 5 7 6 5 5 3 3 2 3 3 3 6 7 7 7 6 5 4 4 3 2 2 1
3 3 2 2 2 2 2 2 2 2 2 2 2 2 2 2 3 3 3 4 4 5 7 4 4 3 2 2 3 2 3 5 7 8 8 7 7 5 5 5 4 3 2
3 3 2 2 2 2 2 2 1 2 2 2 2 2 2 2 2 3 3 3 4 5 5 5 4 3 3 3 2 3 3 3 3 8 8 8 8 7 6 6 5 4 4
3 3 2 2 2 2 2 2 2 3 2 2 2 2 3 2 2 2 3 4 4 4 5 5 5 4 4 3 3 2 2 2 2 5 8 7 7 7 7 7 7 7 6
3 3 3 2 2 2 2 2 2 2 2 1 2 2 2 2 2 2 3 3 3 3 4 4 4 4 4 4 4 4 4 2 2 3 5 7 7 8 8 8 8 8 8
3 3 3 3 2 1 1 1 2 2 2 2 2 2 2 2 2 2 3 3 3 3 3 4 4 5 4 4 4 4 4 3 3 4 8 9 9 9 9 9 9 9 9
3 3 3 3 2 1 2 2 2 2 2 2 2 1 1 3 5 4 2 2 3 3 4 4 5 5 5 5 5 4 3 3 4 4 7 8 9 10 10 10 10 10 11
3 3 3 3 5 8 12 11 5 2 2 2 3 2 2 6 6 8 7 7 5 3 3 4 4 4 4 3 4 4 4 5 6 9 7 11 11 13 13 12 12 12 12
7 8 8 8 10 12 13 12 11 2 2 3 3 2 3 5 6 4 11 12 12 12 12 4 3 3 3 5 5 4 5 5 6 12 9 14 14 16 14 13 13 13 13
14 14 14 13 13 13 14 13 11 7 9 11 11 10 8 9 11 7 7 11 13 13 13 12 12 13 13 13 11 9 9 13 14 15 14 16 16 17 16 14 13 13 14
16 16 16 15 15 15 14 13 11 12 13 15 14 14 13 13 14 10 10 14 15 15 14 14 14 14 14 15 14 12 13 13 15 17 16 15 17 18 17 16 15 14 14
16 16 16 16 15 16 14 14 14 14 16 16 16 16 16 15 14 14 13 14 16 17 16 16 17 17 17 17 17 16 15 14 16 17 16 16 17 17 19 16 16 16 15

GFSMA_con_lsi_117.txt.gz
Lid_Strength_Index
1 3 3 2 3 3 1 1 1 2 2 2 1 1 1 1 1 0 0 0 -0 -1 -2 -2 -2 -2 -2 -2 -2 -2 -2 -2 -2 -2 -1 -1 -1 -2 -1 -1 -0 1 0
1 2 3 2 2 2 2 1 2 2 2 2 2 1 1 1 0 1 1 -0 0 -0 -1 -2 -2 -2 -2 -2 -2 -2 -2 -2 -2 -1 -1 -1 -0 -1 -1 0 1 1 1
2 2 2 2 2 2 2 2 3 3 3 3 3 2 1 1 1 0 0 0 -0 1 0 -1 -2 -2 -2 -2 -2 -2 -2 -2 -2 -1 -1 -0 -1 -0 -0 0 1 1 1
1 2 2 2 2 2 2 3 2 2 4 4 4 3 2 1 0 0 0 -0 -0 -1 0 -0 -1 -1 -2 -2 -2 -2 -2 -3 -2 -1 -0 -0 -0 0 0 1 1 1 1
1 2 2 2 2 2 2 2 2 2 2 2 2 3 2 2 1 -0 -0 -0 -0 -0 -0 0 -0 -0 -1 -2 -2 -2 -2 -2 -1 -2 -1 0 0 0 0 1 1 1 1
1 2 2 3 2 2 2 2 2 2 2 2 2 2 1 1 0 0 -0 -0 -0 0 1 0 0 0 0 -1 -2 -2 -2 -2 -2 -1 -1 -0 -0 0 0 1 1 1 1
2 2 2 3 2 2 2 2 2 2 2 2 2 2 2 1 1 0 0 -0 1 1 1 1 1 1 -0 -1 -1 -2 -2 -2 -2 -1 -1 -0 0 1 0 1 1 1 2
2 2 2 3 2 1 1 1 2 2 2 2 3 3 5 3 2 1 0 0 1 1 2 1 1 1 0 -1 -0 -1 -2 -2 -1 -0 -1 -0 1 1 0 1 1 1 1
2 1 2 2 2 2 2 1 1 2 3 2 2 3 6 7 4 2 1 1 1 2 2 2 1 1 0 0 -0 -0 1 0 -1 -1 -1 -0 0 0 0 1 1 1 1
2 2 2 2 2 2 2 1 1 1 2 3 2 2 2 3 6 6 2 2 2 2 3 2 1 1 0 1 1 1 2 2 1 -0 -1 -1 -0 0 0 0 1 1 1
2 2 2 2 3 2 1 2 2 2 2 2 2 3 2 3 3 4 6 4 3 3 2 2 2 1 1 1 1 1 3 3 4 1 -0 -0 -0 -0 -0 -0 -0 0 0
3 2 2 2 2 2 3 3 2 1 2 3 2 3 3 4 4 4 5 4 4 4 3 3 3 2 1 1 1 3 4 5 5 3 2 1 -0 -0 -0 -0 -0 -0 -0
3 2 2 2 2 3 4 4 3 2 2 2 2 2 2 2 2 2 3 4 5 4 4 3 3 2 2 2 2 4 5 6 6 5 4 3 2 1 0 -0 -1 -1 -1
2 2 2 2 2 3 3 3 3 3 3 2 3 2 2 2 2 3 3 5 6 6 5 5 3 3 2 2 3 5 3 7 7 6 6 5 4 3 2 1 1 0 -0
2 3 2 3 3 4 3 3 3 2 3 2 2 1 2 2 3 3 3 3 5 7 6 5 5 3 3 2 3 3 3 6 7 7 7 6 5 4 4 3 2 2 1
3 3 2 3 4 4 3 3 3 2 2 3 1 2 2 2 2 2 3 3 4 5 6 4 4 3 3 2 3 3 3 5 7 8 8 7 7 5 5 5 4 4 3
3 3 3 3 3 3 3 3 3 2 2 2 2 2 2 2 2 2 3 3 4 5 6 5 4 4 4 3 3 2 3 3 2 7 8 8 8 7 7 6 6 5 5
3 3 3 2 3 3 3 3 3 2 2 3 2 2 2 2 2 2 2 3 4 4 5 6 5 5 4 3 2 3 3 2 3 6 8 8 9 8 8 8 8 7 7
3 3 2 2 3 3 3 3 2 2 2 2 1 2 2 2 3 2 3 3 3 3 4 4 5 4 4 4 4 4 3 3 2 5 8 8 8 8 7 7 8 8 7
3 3 2 2 2 2 2 3 2 2 2 2 1 1 1 2 2 2 2 2 3 3 4 4 4 5 5 4 4 4 4 4 4 8 10 10 10 9 9 9 9 9 9
3 3 3 2 2 2 2 2 1 2 2 2 2 2 1 2 5 3 2 3 2 3 4 4 4 5 5 6 5 4 4 4 5 8 10 9 10 10 10 10 9 9 10
5 3 3 3 3 8 13 9 4 2 2 2 3 2 2 5 6 8 8 7 4 3 3 4 4 4 4 4 4 4 4 6 7 7 10 12 11 12 11 11 11 11 11
14 13 11 10 12 13 14 12 10 2 2 2 3 3 2 3 5 4 12 12 13 13 12 3 3 4 4 4 4 5 5 5 6 10 10 15 13 14 12 12 12 12 13
15 16 15 14 13 14 14 12 13 6 9 10 10 9 5 7 10 6 8 11 13 13 13 11 10 12 12 11 9 6 6 11 13 14 12 16 15 16 15 15 14 14 14
15 16 16 15 15 14 14 13 12 12 14 15 14 13 12 11 13 10 9 13 15 15 13 13 13 14 14 13 12 10 12 12 15 15 16 16 17 18 17 16 15 14 15
16 15 16 15 16 17 14 14 14 15 16 16 16 15 15 13 13 13 11 13 16 18 18 17 16 16 16 15 15 15 14 13 15 16 16 16 17 17 19 16 16 16 17

GFSMA_con_lsi_120.txt.gz
Lid_Strength_Index
1 2 3 2 2 2 2 1 1 2 3 2 2 1 1 1 1 0 -0 0 0 -1 -2 -2 -2 -2 -2 -2 -2 -3 -3 -2 -2 -2 -2 -2 -1 -1 -1 -1 -1 -1 -0
1 1 3 2 3 2 1 1 1 3 3 2 2 2 1 1 1 0 0 -0 1 -0 -1 -1 -2 -2 -1 -1 -2 -2 -2 -2 -2 -2 -2 -2 -1 -0 -0 0 -0 0 0
1 2 2 3 2 3 2 2 2 3 3 3 3 2 2 0 1 1 0 0 -0 1 -0 -1 -1 -2 -2 -1 -2 -2 -2 -2 -2 -2 -2 -2 -1 -0 0 -0 0 0 1
1 2 1 2 3 3 3 3 3 3 3 3 3 3 2 2 1 1 0 -0 -0 -1 0 -0 -1 -1 -1 -2 -1 -2 -2 -3 -2 -2 -2 -1 -0 0 0 0 1 1 1
1 1 1 2 3 2 2 2 2 2 3 3 4 4 3 2 1 0 0 -0 -0 -0 -0 0 0 -0 -0 -1 -2 -2 -2 -2 -2 -2 -2 -2 -0 -0 0 0 1 1 1
1 1 2 2 2 2 2 2 2 2 2 2 2 2 3 2 1 1 1 -0 -0 -1 -1 -0 -0 0 1 -1 -2 -2 -2 -2 -2 -2 -2 -1 -1 -0 0 0 1 1 1
1 1 1 2 2 2 2 2 2 2 3 2 3 3 2 1 1 1 0 -0 -0 -0 -0 -0 0 0 0 -0 -1 -2 -2 -2 -2 -2 -2 -2 -1 -0 0 0 1 1 1
1 1 2 3 2 2 2 2 2 2 2 2 3 3 5 3 2 1 0 0 0 -0 0 1 1 1 1 0 -1 -1 -2 -2 -2 -2 -2 -1 -1 -0 0 0 1 1 1
2 1 2 2 2 1 2 2 1 2 3 2 2 3 6 7 4 2 1 1 1 1 1 1 1 1 1 0 -1 -0 1 0 -1 -2 -2 -2 -0 0 1 0 1 1 1
2 2 2 3 1 1 1 1 1 1 1 3 2 2 3 3 5 6 2 2 1 1 1 1 1 1 1 0 -0 1 2 3 1 -1 -2 -2 -0 0 0 0 0 0 1
3 2 3 3 2 1 1 2 1 1 1 2 2 2 3 4 3 4 6 4 2 1 1 1 1 1 1 0 0 1 3 3 3 1 -2 -2 -1 -0 0 0 0 0 0
3 3 3 2 2 2 1 2 2 1 1 2 2 3 3 4 4 4 5 4 4 3 2 2 2 2 1 0 1 2 4 5 4 2 -0 -1 -1 -0 -0 0 0 -0 -0
3 2 2 2 2 2 1 1 2 2 2 2 2 2 2 2 3 2 3 4 4 3 3 2 2 2 2 1 1 3 4 6 5 4 3 2 1 0 0 0 0 -0 -0
2 1 1 1 2 2 2 2 2 2 2 2 2 2 3 2 2 2 3 4 5 5 5 4 3 2 2 2 3 5 3 7 6 6 5 4 3 3 2 2 1 0 -0
2 1 1 1 2 2 3 3 2 3 3 2 2 2 2 3 3 2 1 2 4 6 6 5 5 3 2 2 3 3 3 6 7 7 7 6 5 4 4 3 2 2 1
2 1 1 2 2 2 3 3 3 3 3 3 2 2 2 2 2 2 3 2 2 4 6 4 4 3 2 2 3 3 3 5 7 8 8 8 7 6 5 5 4 3 3
3 3 2 2 2 3 3 3 3 4 4 4 3 2 2 2 2 2 2 2 3 4 6 5 4 3 3 3 3 3 3 3 3 8 8 8 8 8 7 7 6 6 5
3 3 3 2 2 2 3 3 4 4 4 4 2 2 2 2 2 2 2 2 3 3 5 6 5 5 4 3 3 3 3 2 2 6 7 8 8 9 9 8 8 8 7
2 2 2 2 3 2 3 3 4 4 4 4 2 2 2 2 2 2 2 2 2 3 4 5 5 4 4 4 4 3 3 3 3 6 8 9 9 9 9 9 9 8 8
2 3 2 2 2 2 2 3 3 4 4 3 2 2 1 2 2 2 2 2 3 3 4 4 4 5 4 4 4 4 4 4 6 8 10 10 10 10 10 10 10 9 9
11 10 2 2 2 2 2 2 3 3 3 3 2 2 1 2 5 3 2 2 3 3 3 4 4 4 5 5 5 4 4 4 5 9 10 10 11 11 11 10 9 10 10
13 13 12 10 6 10 13 10 5 3 2 2 2 2 2 5 6 8 8 7 4 3 3 4 4 5 5 4 4 4 4 6 8 9 11 13 12 13 12 11 10 10 10
13 14 14 14 14 13 14 11 11 2 2 2 2 2 2 3 5 3 11 12 13 13 12 2 3 4 5 4 4 4 4 5 7 10 12 16 14 14 12 12 11 11 11
14 14 14 15 14 14 14 13 12 6 8 11 11 10 4 5 5 7 8 11 13 13 12 11 10 11 11 10 7 5 5 11 12 13 11 16 14 15 14 13 12 13 13
15 15 15 15 15 15 15 14 14 13 14 15 14 14 14 10 13 10 9 13 15 15 14 13 14 14 14 13 12 8 11 10 13 14 14 15 16 16 16 15 15 14 15
16 15 15 16 16 17 15 14 14 15 16 16 15 15 15 14 13 13 10 12 15 16 16 16 16 16 16 16 16 14 13 12 14 15 14 16 16 16 18 16 17 17 16

GFSMA_con_lsi_123.txt.gz
Lid_Strength_Index
-0 -1 -1 -1 -1 -1 -1 -1 -1 -1 -1 -1 -1 -1 -1 -1 -1 -1 -2 0 -0 -1 -2 -2 -2 -2 -2 -2 -2 -2 -2 -2 -2 -1 -2 -2 -2 -1 -0 -1 -2 -1 -1
-0 -0 -0 -0 -0 -1 -1 -1 -1 -0 -1 -1 -1 -1 -1 -1 -1 -1 -1 -2 0 -0 -1 -2 -1 -2 -2 -2 -2 -2 -2 -2 -2 -2 -2 -2 -2 -1 -0 -0 -1 -1 -0
-0 -0 0 -0 -1 -1 -1 -1 -0 -0 -0 -1 -0 -0 -1 -1 -1 -1 -1 -2 -1 1 0 -1 -1 -1 -2 -1 -1 -1 -2 -2 -2 -2 -2 -2 -1 -1 0 0 -0 -0 -0
-0 0 1 0 -1 -0 0 1 1 1 0 0 0 -0 -1 -1 -1 -1 -1 -1 -2 -1 -0 -0 -1 -1 -1 -2 -1 -1 -2 -2 -3 -2 -3 -1 -2 -1 -0 0 -0 0 0
-0 1 1 0 -0 -0 0 1 2 1 1 1 0 -0 -0 -0 -1 -1 -1 -1 -1 -2 -2 -0 0 -0 -1 -1 -2 -1 -1 -1 -2 -2 -2 -2 -2 -1 -0 0 0 0 0
0 1 -0 0 -0 1 1 1 1 1 1 1 1 1 0 -0 -1 -1 -0 -1 -1 -1 -2 -2 -2 -0 0 -1 -1 -1 -1 -1 -1 -2 -2 -2 -2 -1 -1 0 0 1 1
0 -0 -0 0 0 0 1 1 1 2 2 1 2 2 2 1 1 0 -1 -1 -1 -1 -1 -1 -2 -1 -0 0 -1 -1 -1 -1 -2 -2 -2 -2 -2 -1 -1 -0 1 1 1
-1 -0 -0 0 0 1 1 1 1 2 1 1 3 3 5 3 1 0 0 0 -0 -1 -1 -1 -1 -1 -1 -1 -1 -0 -1 -2 -2 -2 -2 -2 -2 -1 -1 -0 -0 1 1
-0 -0 -0 0 0 0 1 1 1 1 2 1 1 2 5 6 3 1 1 0 0 0 -0 -1 -1 -0 -0 -1 -0 0 1 0 -2 -2 -2 -2 -2 -2 -1 0 0 0 1
-0 -0 -0 0 0 0 1 1 0 1 1 3 1 1 1 1 4 5 2 1 0 0 0 -0 -1 -1 -0 -1 0 1 3 3 1 -1 -2 -2 -2 -2 -1 0 0 0 0
0 -0 -0 1 0 0 1 1 1 1 1 1 2 2 2 2 2 4 5 3 1 0 0 0 -0 -0 -0 -1 -1 1 4 4 2 0 -1 -1 -1 -2 -1 -0 0 0 0
1 1 1 1 1 1 0 1 0 0 1 1 1 1 2 3 3 3 4 4 4 2 0 0 0 -0 1 0 0 3 4 4 4 2 0 -1 -1 -1 -2 -2 -1 -0 -0
2 2 1 1 1 1 1 1 1 1 1 1 1 1 1 1 1 2 3 4 4 2 2 1 0 0 1 0 0 3 4 5 5 3 2 1 0 -0 -0 -1 -1 -1 -0
1 1 1 1 1 1 1 1 1 1 1 1 1 1 1 1 1 1 3 3 5 4 3 3 2 1 1 1 1 5 1 6 6 5 4 4 3 2 2 1 1 0 0
1 0 0 1 0 0 0 1 1 2 2 1 1 1 1 1 1 1 1 2 3 6 5 4 3 2 1 2 2 1 0 5 7 7 6 6 5 4 4 3 3 2 1
1 1 1 0 0 0 1 1 2 2 2 1 2 2 2 2 1 1 1 1 2 3 6 3 3 2 2 2 3 2 1 5 7 8 8 7 7 6 5 5 4 4 3
1 1 1 1 1 1 1 2 2 2 2 2 2 2 2 2 2 1 1 1 2 2 4 3 3 2 3 2 2 2 2 2 2 8 8 8 8 8 7 7 6 5 5
1 1 2 2 1 1 1 2 2 2 3 3 3 3 3 1 1 1 1 1 2 1 3 4 3 3 3 2 2 3 3 2 1 6 8 9 8 9 8 8 8 7 7
9 3 1 2 2 2 2 2 2 2 2 3 3 3 3 1 2 1 1 2 1 2 2 4 4 3 3 3 3 3 2 1 1 5 8 9 8 8 9 9 9 8 8
11 11 10 3 1 1 2 2 2 2 2 2 3 3 2 1 1 1 2 2 1 2 3 3 4 4 4 3 3 4 4 2 3 6 9 8 9 9 9 9 9 9 9
12 11 12 12 12 10 13 12 3 3 3 3 4 3 1 2 5 2 1 2 2 2 3 3 4 4 4 5 5 3 4 4 6 8 10 10 10 10 10 10 10 10 11
14 14 13 13 13 13 14 14 12 3 3 3 4 2 1 6 6 8 7 6 2 2 3 3 4 4 4 4 4 4 4 5 8 8 10 13 12 13 12 11 11 11 11
13 14 15 14 14 16 14 14 13 7 3 3 3 2 2 3 5 2 8 11 11 11 10 1 3 3 3 3 3 4 4 4 6 9 12 15 14 15 13 12 12 12 12
13 14 15 15 15 15 15 14 14 13 13 14 14 13 9 4 4 3 7 9 11 11 10 9 5 3 4 3 2 2 4 11 13 13 12 15 15 15 15 13 12 12 12
13 14 15 15 16 16 15 15 14 14 15 16 15 15 14 13 14 12 8 11 14 15 13 13 13 13 14 13 10 6 10 10 13 14 14 15 15 15 15 14 14 13 13
14 14 14 15 15 16 15 15 15 15 15 15 16 16 16 15 14 14 10 11 13 15 16 15 15 15 15 15 15 14 9 8 13 14 14 15 15 15 17 15 16 15 15

GFSMA_con_lsi_126.txt.gz
Lid_Strength_Index
-0 -1 -1 -1 -1 -1 -1 -1 -1 -1 -1 -1 -1 -1 -1 -1 -1 -1 -2 -0 -0 -1 -2 -2 -2 -2 -1 -2 -2 -2 -2 -2 -2 -2 -2 -2 -2 -2 -2 -1 -1 -1 -1
-1 -1 -0 -0 -1 -1 -1 -1 -1 -1 -1 -1 -1 -1 -1 -1 -1 -1 -2 -2 0 -1 -1 -2 -1 -1 -2 -2 -2 -2 -1 -2 -2 -2 -2 -2 -2 -2 -2 -1 -0 -1 -1
-1 -0 -0 -0 -0 -1 -1 -1 -1 -1 -1 -1 -1 -1 -1 -1 -1 -1 -1 -2 -1 1 0 -1 -1 -1 -2 -2 -2 -2 -1 -2 -2 -2 -2 -2 -2 -2 -1 -0 -0 -1 -1
-1 -0 0 -0 -1 -1 -1 -0 0 0 0 0 -0 -0 -1 -1 -1 -1 -1 -1 -1 -2 0 -0 -1 -1 -1 -2 -2 -1 -1 -2 -2 -2 -2 -2 -2 -2 -1 -0 0 -0 -0
-1 -0 -0 -0 -1 -0 0 -0 0 0 1 0 0 -0 -0 -0 -1 -1 -1 -1 -2 -2 -2 0 0 0 -1 -1 -2 -2 -1 -1 -1 -2 -2 -2 -2 -2 -1 -1 -0 -0 -0
-1 -0 -0 -0 -0 0 0 0 1 0 0 0 1 1 0 -0 -1 -1 -0 -1 -1 -2 -2 -2 -2 -1 0 -1 -1 -2 -2 -1 -1 -1 -2 -2 -2 -2 -1 -1 -0 -0 0
-1 -0 -0 -0 -0 0 0 0 1 1 1 0 1 2 1 0 0 0 -1 -0 -1 -1 -2 -2 -2 -2 -1 -0 -1 -1 -2 -2 -1 -2 -2 -2 -2 -2 -1 -1 -1 -0 0
-1 -0 -0 0 0 0 1 0 1 2 1 1 3 3 4 3 1 0 -0 -0 -0 -1 -1 -1 -1 -1 -1 -1 -1 -1 -2 -2 -2 -1 -2 -2 -2 -2 -2 -1 -1 -1 0
-1 -0 -0 -0 -0 -0 1 1 1 1 3 1 1 2 5 5 3 1 1 1 0 0 -0 -1 -1 -1 -2 -1 -0 -0 2 1 -0 -1 -1 -2 -2 -2 -2 -2 -1 -1 0
-0 -1 -1 -0 -0 0 0 1 0 1 1 3 1 1 1 1 4 4 1 1 0 1 0 -0 -0 -1 -1 -1 -0 1 3 4 2 0 -1 -2 -2 -2 -2 -2 -1 -1 -0
-0 -0 -0 -0 0 0 0 0 1 1 1 1 2 2 2 2 1 3 4 3 1 0 -0 -0 -0 -1 -1 -1 -1 0 4 5 4 1 -1 -1 -2 -2 -2 -2 -2 -2 -1
1 0 0 0 0 0 1 0 0 1 1 1 1 1 2 3 3 3 4 3 3 2 0 -0 -0 -1 -1 -1 -0 2 4 5 5 2 0 -1 -1 -1 -1 -1 -1 -2 -2
1 1 1 1 0 0 0 0 0 1 1 1 1 1 1 1 1 2 3 3 3 2 1 0 -0 -1 -1 -1 -0 3 5 6 5 4 2 1 0 -0 -0 -1 -1 -1 -1
1 0 1 1 0 0 0 0 0 0 0 1 1 1 1 1 1 1 2 3 4 3 2 2 -0 -0 -1 -1 0 4 1 7 7 6 4 2 2 1 1 0 0 1 0
2 1 0 1 2 0 1 0 1 1 1 1 1 1 1 1 1 0 1 1 3 6 5 2 2 -0 -0 -0 1 1 1 5 7 7 6 4 3 2 3 3 2 2 2
4 2 1 1 1 1 1 1 1 1 1 1 1 1 1 1 1 0 1 1 1 3 5 2 1 0 -0 0 2 1 1 5 7 8 7 6 5 4 4 4 4 4 3
5 3 1 1 1 1 1 1 1 1 1 1 1 1 1 1 1 1 1 1 2 2 4 2 1 0 1 1 2 1 1 1 2 8 9 8 8 7 7 6 6 5 5
9 8 6 1 1 1 1 1 1 1 1 2 2 2 2 2 1 1 1 1 1 1 2 4 2 2 1 1 2 2 2 2 2 7 8 9 8 8 8 8 8 7 7
11 10 10 10 8 2 2 1 1 1 1 1 1 2 2 2 2 2 2 1 1 1 1 2 3 2 2 1 2 2 3 3 2 5 8 9 9 9 8 9 8 8 8
13 13 12 12 12 13 13 12 10 3 2 2 2 1 1 1 2 3 2 1 1 2 2 2 3 3 3 2 2 3 4 3 3 3 9 9 8 9 8 9 9 9 9
13 14 13 14 14 14 14 14 12 9 4 2 2 2 1 2 5 4 2 1 1 2 3 3 3 3 4 4 4 3 4 4 3 5 7 8 7 7 8 9 8 9 9
13 12 14 14 15 15 15 14 13 8 6 3 2 2 2 6 6 9 9 7 3 2 3 3 3 4 4 4 3 3 4 5 7 7 8 12 11 12 11 11 11 11 11
12 13 13 13 15 15 14 14 14 12 13 13 13 13 6 2 5 3 9 10 9 9 7 2 3 3 3 2 3 3 4 4 5 8 11 15 14 15 13 12 12 12 12
12 12 13 13 13 14 15 15 15 13 14 14 15 15 14 13 14 13 3 5 6 9 9 7 4 1 1 0 1 1 3 6 12 13 12 16 15 16 15 14 13 12 13
13 13 13 14 14 14 15 15 14 14 15 15 16 16 16 16 15 14 10 7 12 15 14 13 14 14 14 13 11 4 9 9 12 13 14 15 16 16 16 15 15 14 14
12 13 13 14 15 15 14 14 14 15 17 17 17 17 17 17 16 15 12 10 12 14 16 15 15 15 16 15 15 14 8 8 12 13 13 15 16 16 17 16 15 14 14

GFSMA_con_lsi_129.txt.gz
Lid_Strength_Index
-0 -0 -0 -1 -1 -1 -1 -0 -1 -0 -1 -1 -1 -1 -1 -1 -1 -1 -1 0 -0 -1 -2 -2 -2 -2 -1 -1 -1 -2 -2 -2 -2 -2 -2 -3 -2 -2 -2 -1 -1 0 -1
-1 -0 -0 -0 -0 -1 -1 -1 -0 0 -0 -0 -0 -1 -1 -1 -1 -2 -1 -1 0 -1 -1 -2 -2 -2 -2 -1 -1 -2 -2 -2 -2 -2 -2 -3 -2 -2 -2 -1 -1 0 -1
-1 -1 -0 0 -0 -1 -1 -1 -1 -0 -0 -0 -0 -0 -1 -1 -1 -1 -1 -1 -0 1 -0 -1 -1 -2 -2 -2 -1 -2 -2 -1 -2 -2 -2 -3 -2 -2 -2 -2 -2 0 -0
-1 -0 -0 -0 -1 -1 -0 -0 0 0 0 1 1 0 0 -0 -1 -1 -1 -1 -1 -1 1 -0 -1 -1 -1 -1 -2 -2 -2 -1 -1 -2 -2 -2 -2 -2 -2 -1 -1 -0 1
-1 -0 0 -0 -1 -0 -0 0 0 0 1 1 1 0 -0 0 -0 -0 -0 -1 -1 -1 -1 1 0 0 -0 -1 -2 -2 -2 -2 -2 -2 -2 -2 -2 -2 -1 -1 -1 -1 -0
-0 -0 -0 -0 -0 0 0 0 1 0 1 1 1 1 1 0 -0 -0 -0 -0 -1 -1 -1 -2 -1 -1 1 -1 -1 -2 -2 -2 -2 -1 -2 -2 -2 -2 -2 -2 -1 -1 -1
-0 0 0 0 0 1 1 0 1 1 1 0 1 2 1 0 0 0 -0 -0 -0 -0 -1 -1 -1 -1 -1 -0 -1 -2 -2 -2 -2 -1 -1 -1 -2 -2 -2 -2 -1 -1 -1
-0 0 0 0 0 1 1 1 1 2 1 1 2 3 4 3 1 1 0 0 -0 -1 -0 -1 -1 -1 -1 -1 -1 -1 -1 -2 -2 -2 -2 -0 -2 -2 -2 -2 -1 -1 -1
-0 -0 0 -0 0 0 1 1 1 1 2 1 1 2 5 5 3 1 1 1 0 0 -0 -1 -1 -1 -1 -1 -1 -0 1 1 -1 -2 -1 -1 -0 -1 -2 -1 -1 -1 -1
-0 -0 -0 -0 0 0 1 1 1 1 1 3 2 1 1 2 4 4 2 1 1 1 0 -0 -0 -1 -1 -1 -0 1 3 3 1 -1 -1 -1 -0 -0 -2 -1 -1 -1 -1
-0 0 0 -0 0 0 0 0 1 1 1 2 2 2 2 2 2 4 5 3 1 1 0 0 -0 -0 -1 -1 -1 0 4 4 3 0 -0 -0 -0 -0 -1 -1 -1 -1 -2
1 0 0 0 0 0 0 0 0 1 1 1 1 2 2 3 3 3 4 3 3 2 1 0 0 -0 -1 -1 -0 2 4 5 4 3 1 0 0 -0 -1 -1 -2 -2 -2
1 1 0 1 1 0 0 0 1 1 1 1 1 2 1 2 2 2 3 3 4 2 2 0 -0 -0 -0 -1 -1 3 4 5 5 4 3 2 1 0 0 -1 -2 -2 -1
2 0 1 0 0 1 1 1 1 1 1 1 1 1 1 1 1 1 2 3 4 4 2 2 0 -0 -1 -1 0 5 0 6 6 5 4 4 3 2 1 -0 -1 -1 -1
5 3 1 1 0 0 1 1 1 1 1 1 1 1 1 1 1 1 1 1 3 6 5 3 2 -0 -0 -1 0 -1 -1 5 6 7 6 5 4 3 2 1 1 1 1
6 4 3 1 0 0 1 1 1 1 1 1 1 1 1 1 1 1 1 1 2 3 5 2 1 0 -0 -0 0 -1 -1 4 7 7 7 7 6 5 4 3 2 2 2
7 7 6 6 1 1 1 1 1 1 2 1 1 2 2 1 1 1 1 1 2 2 4 2 1 0 1 0 0 -0 -0 0 2 8 8 8 8 7 6 5 5 4 4
9 9 10 10 11 11 11 10 3 1 2 2 2 2 2 1 2 1 1 2 2 1 3 4 2 2 1 0 0 0 0 0 1 7 8 8 8 8 8 8 7 6 6
11 11 12 12 13 13 13 13 12 10 3 2 2 2 2 2 2 2 2 2 2 2 2 3 3 2 1 1 1 1 1 1 1 7 9 9 9 8 8 8 8 8 8
12 12 12 13 13 14 14 13 12 11 9 6 1 1 1 2 2 2 2 2 2 2 2 3 3 3 2 1 1 2 3 2 2 3 7 7 9 9 8 9 8 8 8
12 13 13 14 14 15 15 15 12 9 9 8 9 4 1 2 6 5 2 2 2 2 3 3 3 3 3 3 3 2 3 3 2 5 7 7 7 7 8 10 9 9 9
12 12 13 13 14 15 15 14 13 12 13 14 14 13 11 8 12 9 9 9 3 2 3 3 3 4 3 3 2 3 3 4 5 5 6 11 10 11 11 11 12 11 10
11 12 13 12 14 14 14 14 13 13 14 15 15 15 14 13 13 13 12 11 10 10 9 2 3 3 3 2 2 3 3 4 5 6 9 14 13 14 13 12 12 12 11
12 13 13 13 13 14 14 14 13 13 14 15 15 16 16 15 15 15 12 11 5 4 7 6 3 2 2 2 2 1 2 3 11 11 9 14 14 16 15 13 12 12 13
12 13 13 14 14 14 14 14 13 12 12 15 16 17 16 17 16 16 13 12 9 14 14 14 14 14 15 15 12 2 5 9 14 13 14 15 16 16 15 15 15 13 13
11 11 11 11 13 13 14 15 14 14 14 14 14 16 16 17 16 16 16 15 15 16 16 15 16 16 16 16 16 15 7 6 13 14 14 15 16 16 18 16 15 15 15

GFSMA_con_lsi_132.txt.gz
Lid_Strength_Index
0 0 0 -0 0 -0 0 0 0 0 0 0 0 0 0 0 -0 -0 -0 0 -0 -1 -2 -2 -2 -2 -2 -1 -2 -2 -2 -2 -2 -2 -2 -1 -2 -2 -2 -1 -1 -1 -2
0 0 0 0 0 0 0 0 0 0 0 0 0 0 0 0 0 -0 -1 -0 1 -0 -1 -2 -2 -2 -2 -2 -2 -1 -2 -2 -2 -2 -1 -1 -2 -2 -2 -1 -1 -1 -1
0 0 0 0 0 0 0 0 0 0 0 0 0 0 0 0 0 0 -0 -1 0 1 0 -1 -1 -2 -2 -1 -1 -1 -1 -1 -2 -1 -1 -1 -2 -2 -2 -1 -1 -1 -2
-0 0 0 1 0 0 0 0 1 1 1 1 1 1 0 0 0 0 -0 -0 -0 -0 0 -0 -0 -1 -1 -2 -1 -1 -2 -2 -2 -1 -1 -2 -2 -2 -2 -1 -1 -1 -1
-0 0 0 0 0 0 0 1 1 1 2 1 1 1 1 1 0 0 0 0 -0 -0 -0 1 0 0 -0 -1 -1 -2 -2 -2 -2 -2 -2 -2 -2 -2 -2 -2 -1 -1 -0
0 0 0 0 0 1 1 1 1 1 1 2 1 1 1 1 0 0 0 0 0 0 -0 -1 1 0 1 -0 -1 -2 -2 -2 -2 -2 -2 -2 -1 -2 -2 -2 -1 -0 -1
0 0 0 0 0 1 1 1 1 2 2 1 3 3 2 1 1 1 0 0 0 -0 0 -0 -0 -0 0 1 -1 -1 -2 -2 -2 -2 -2 -2 -1 -1 -2 -2 -1 -1 -1
0 0 0 1 1 1 1 1 1 2 2 1 3 4 6 4 2 1 1 1 1 0 0 -0 -0 -0 0 0 0 -1 -1 -2 -2 -2 -2 -1 -1 -0 -1 -2 -2 -1 -1
0 0 0 1 1 1 1 1 1 2 3 2 1 3 6 7 4 2 2 1 1 1 1 1 0 -0 0 0 0 0 2 1 -1 -1 -1 -1 -1 -1 -0 -0 -2 -2 -1
0 0 0 0 1 1 1 1 1 1 2 3 2 1 2 3 6 6 3 2 2 1 1 1 1 0 0 -0 1 2 3 3 2 -1 -1 -1 -1 -1 -1 -0 -0 -1 -1
0 0 0 0 1 1 1 1 1 1 1 2 2 3 2 2 3 5 6 4 2 2 1 1 1 1 0 0 0 1 4 5 4 1 -0 -1 -1 -1 -1 -0 0 0 -1
1 1 0 1 0 1 1 1 1 1 1 1 2 2 3 4 4 4 5 4 4 3 1 1 1 0 0 1 0 2 4 5 5 3 1 -0 -1 -1 -1 -1 0 -0 -1
3 2 1 1 1 1 1 1 1 1 1 1 2 2 2 2 2 3 3 4 5 3 3 1 1 1 1 0 1 3 5 6 5 4 2 1 0 0 0 -0 0 0 -2
3 2 4 1 1 1 1 1 1 1 1 1 1 1 2 1 2 2 3 4 6 4 4 3 1 1 1 1 1 4 2 7 7 5 4 3 2 2 2 2 1 1 0
6 5 6 6 3 1 1 2 2 2 1 1 1 1 1 2 1 2 2 2 4 6 6 3 3 1 0 1 2 2 1 6 7 6 6 4 3 3 3 3 2 2 1
9 9 9 9 9 8 4 1 1 1 1 1 1 1 1 1 1 2 2 2 2 4 6 3 2 2 0 0 2 1 0 4 7 7 7 6 5 4 4 4 4 3 2
11 11 11 11 11 12 12 10 9 3 2 2 1 2 2 1 2 1 1 1 2 2 5 3 2 2 2 2 2 1 1 1 2 7 8 7 7 6 6 5 5 5 4
11 12 12 12 12 13 13 13 12 10 8 7 2 2 2 2 2 1 2 2 2 2 3 4 3 3 2 2 1 2 1 0 -0 5 7 8 7 7 7 7 7 7 6
12 12 13 13 13 14 14 13 11 10 9 7 7 9 3 2 2 2 2 2 2 2 2 3 3 2 2 2 2 2 2 1 0 3 7 8 8 8 8 8 8 7 7
12 12 13 13 13 13 13 12 11 12 12 12 12 11 10 12 13 9 3 2 2 2 2 3 3 3 3 3 2 3 4 2 2 2 5 6 7 7 8 8 8 8 8
13 13 12 14 14 14 14 13 12 12 13 13 13 13 11 13 14 14 13 12 6 3 3 3 4 3 3 4 4 3 4 4 3 4 5 5 6 6 7 9 7 9 9
13 14 14 14 15 15 14 14 13 13 14 14 15 15 13 14 15 15 14 14 13 10 5 3 4 4 4 3 4 3 4 5 6 4 5 9 8 8 9 7 9 10 10
14 14 15 15 15 16 15 14 13 13 14 15 16 16 16 15 16 15 14 13 11 11 13 8 4 3 3 2 3 4 4 4 5 6 5 11 12 13 12 12 11 11 11
13 14 14 14 15 15 14 14 14 13 13 14 15 16 16 16 16 16 14 14 13 14 14 13 14 12 10 4 3 3 3 4 11 11 7 12 15 15 14 13 12 12 12
13 13 13 14 15 16 15 15 15 15 15 14 14 14 15 15 15 14 16 16 16 14 13 14 14 14 15 15 16 7 5 9 15 14 15 13 16 16 15 15 14 12 12
13 13 13 13 13 15 13 13 13 14 15 15 15 15 15 15 15 14 16 17 19 18 17 16 15 15 16 16 17 16 16 7 11 15 15 15 16 16 17 16 15 15 14

GFSMA_con_lsi_135.txt.gz
Lid_Strength_Index
1 1 0 0 0 0 0 1 0 0 0 0 0 1 1 1 0 0 0 0 -0 -1 -2 -2 -2 -2 -2 -2 -2 -2 -2 -2 -2 -2 -2 -2 -1 -1 -2 -1 -2 -1 -1
1 1 1 0 0 0 0 1 1 1 0 1 1 1 1 1 -0 0 0 0 1 -0 -1 -1 -2 -2 -2 -1 -2 -2 -2 -2 -2 -2 -2 -1 -1 -0 -1 -2 -2 -1 -1
1 1 1 1 1 1 1 1 1 1 2 1 1 0 0 0 0 0 0 0 -0 1 0 -1 -1 -1 -2 -2 -2 -2 -2 -1 -2 -2 -2 -1 -0 0 -0 -2 -1 -1 -1
0 1 1 1 1 1 1 1 2 2 2 2 2 1 0 1 0 -0 -0 -0 -0 -1 1 0 -0 -1 -1 -2 -1 -1 -1 -2 -1 -2 -2 -1 -0 0 -1 -1 -1 -1 -1
1 0 1 1 1 1 1 1 2 2 2 2 2 2 1 1 0 0 0 -0 0 -0 -0 0 1 1 -0 -1 -1 -1 -2 -1 -2 -2 -2 -2 -1 -0 -1 -1 -2 -1 -1
0 0 1 1 1 1 1 2 2 2 2 2 1 2 2 1 1 1 1 0 0 0 0 0 0 0 1 -0 -1 -1 -2 -2 -2 -2 -2 -2 -2 -2 -1 -0 -2 -2 -1
1 1 1 2 1 1 1 2 2 3 3 3 3 3 3 2 2 2 1 1 1 0 -0 -0 0 1 1 0 -0 -1 -2 -2 -2 -2 -2 -2 -2 -1 -1 -0 -0 -2 -1
0 1 1 2 1 1 2 2 2 4 4 3 4 5 6 4 3 2 2 1 2 1 1 0 0 0 0 0 0 -1 -1 -2 -2 -2 -1 -1 -1 -1 -1 -0 -0 -1 -2
0 1 1 1 2 2 2 2 1 2 3 3 3 4 6 7 5 3 2 1 1 2 1 1 0 0 0 1 1 1 2 1 -1 -1 -1 -1 -1 -1 -1 -1 -1 -0 -2
0 1 1 1 1 2 2 2 1 1 2 3 3 2 3 3 6 6 3 2 2 2 2 2 1 1 0 0 1 2 3 3 2 -0 -1 -1 -1 -1 -2 -2 -1 -1 -0
0 0 1 1 1 1 2 1 2 1 2 2 2 4 3 3 4 5 6 4 3 2 2 1 2 1 1 1 1 1 4 5 4 1 -0 -1 -1 -1 -1 -1 -1 -1 -1
1 1 1 1 1 1 2 1 1 1 1 2 2 2 3 4 4 4 5 5 4 3 2 1 2 2 1 1 1 3 5 5 5 3 1 0 -1 -1 -1 -1 -1 -1 -1
5 5 2 4 3 1 1 1 1 1 1 2 2 2 2 2 2 3 4 4 5 4 3 2 1 1 1 1 1 3 4 6 6 5 3 2 1 0 -1 -1 -1 -1 -1
7 8 8 6 7 7 1 1 1 1 1 1 2 1 2 2 2 2 3 4 6 5 5 4 2 1 1 1 1 5 2 7 7 6 5 4 3 2 1 0 -0 0 0
8 8 9 10 8 8 8 4 2 2 2 2 2 2 2 1 2 2 2 4 4 6 6 3 3 1 1 1 2 1 2 6 7 7 6 5 4 3 3 2 2 2 1
10 11 11 11 11 10 10 9 8 8 5 3 1 2 1 1 1 2 2 3 3 4 6 3 3 3 1 1 2 1 1 5 7 8 8 7 6 4 4 3 3 3 3
12 12 13 13 12 12 11 10 9 9 8 8 8 8 5 3 1 2 2 2 2 2 4 3 2 2 2 1 1 2 2 2 3 8 8 8 7 6 6 5 5 4 4
13 13 13 13 14 13 12 11 12 12 11 12 10 10 11 10 12 9 3 2 2 2 3 4 2 2 2 2 1 2 2 1 1 6 8 8 7 7 7 6 6 6 5
14 14 14 14 15 14 13 12 12 12 13 12 12 11 13 13 14 14 12 10 5 2 3 3 4 2 2 3 3 3 2 2 2 4 8 9 8 7 7 7 6 6 6
14 15 15 15 15 14 13 13 13 13 13 13 13 12 13 14 14 14 12 12 11 10 3 3 3 3 3 2 2 3 3 2 2 2 5 6 8 7 7 7 7 6 7
14 14 15 15 15 15 14 13 13 14 14 14 14 14 13 13 14 14 13 13 12 11 9 7 4 3 3 4 3 2 3 3 2 3 3 4 5 6 6 8 6 7 7
15 15 15 16 16 15 14 14 13 14 14 15 15 15 14 14 14 14 13 13 13 13 13 11 8 7 4 3 3 3 3 4 5 3 4 5 6 6 6 5 6 7 8
15 16 16 16 16 16 14 14 14 14 14 15 16 15 15 15 15 15 15 14 14 14 16 14 14 13 13 13 14 5 4 3 4 4 4 6 11 9 13 11 9 9 9
15 16 17 17 17 16 15 15 15 15 15 15 15 16 16 16 16 16 16 16 16 16 16 15 14 15 15 14 13 12 11 3 7 8 4 8 15 16 16 14 11 10 10
16 16 16 17 18 17 15 14 16 16 16 15 14 15 15 15 14 14 15 16 17 17 16 16 15 15 15 15 15 14 12 9 12 13 14 11 16 16 16 16 15 12 11
16 16 16 17 16 18 15 14 14 15 16 15 14 14 13 13 13 13 15 16 17 16 17 18 18 16 16 16 16 16 15 15 14 14 14 11 16 16 17 17 16 15 14